Darstellungsparameter: Aktuell verwendete Einstellungen:
Skalierung der Graphiken ... ?
xyx+y,   Skalierungsfaktor:      Skalierung: Modus: x, Faktor: 1
Darstellungszeitraum ... ?
Vom - - bis: - -   Zeitraum: 28.07.2021 - 01.08.2021
Min/Max/Avg-Anzeige ... ?
Zeige MMA aktuell
Zeige MMA Monat
Zeige MMA alles
Zeige --A aktuell
Zeige --A Monat
Zeige --A alles
Keine MMA-Anzeige
MMA:
Average (ber die Originaldaten)
MMA-Basis: 28.07.2021 - 01.08.2021
Quicknavigation für Darstellung... ?
Tage:      1T, 2T, 3T, 5T -1T -2T -3T -5T +1T +2T +3T +5T
Wochen: 1W, 2W, 3W -1W -2W -3W +1W +2W +3W
Monate: 1M, 3M, 6M -1M -3M -6M +1M +3M +6M
Jahre:    1J, 3J, 5J, 10J -1J -3J -5J -10J +1J +3J +5J +10J
Nutze für die Darstellung ... ?
Originaldaten oder Mittelwerte auf ...
Stundenbasis Tagesbasis Wochenbasis
Monatsbasis Jahresbasis      Datenbasis: Original-Daten
Darstellen als:
Statistik (Auto) Statistik J:M      Darstellung:
Zur Graphik,    zurück zur Übersicht aller Sensoren.
 
Tabellarische Datenbersicht: ?
 
Sensor: Nr:Datum:Temp:Abs-Feuchte:Windchill:Wind:
Aussen-T/F 1 28-07-2021 00:00:00 15.2 C 12.33 g/m*3 15.2 C 4.8 km/h
2 28-07-2021 00:05:00 15.1 C 12.26 g/m*3 15.1 C 4.8 km/h
3 28-07-2021 00:10:00 15 C 12.18 g/m*3 15 C 4.8 km/h
4 28-07-2021 00:15:00 14.9 C 12.11 g/m*3 14.9 C 6.4 km/h
5 28-07-2021 00:20:00 14.8 C 12.03 g/m*3 14.8 C 6.4 km/h
6 28-07-2021 00:25:00 14.8 C 12.16 g/m*3 14.8 C 4.8 km/h
7 28-07-2021 00:30:00 14.7 C 12.09 g/m*3 14.7 C 4.8 km/h
8 28-07-2021 00:35:00 14.6 C 11.89 g/m*3 14.6 C 4.8 km/h
9 28-07-2021 00:40:00 14.6 C 12.01 g/m*3 14.6 C 3.2 km/h
10 28-07-2021 00:45:00 14.6 C 12.01 g/m*3 14.6 C 6.4 km/h
11 28-07-2021 00:50:00 14.5 C 11.94 g/m*3 14.5 C 4.8 km/h
12 28-07-2021 00:55:00 14.4 C 11.87 g/m*3 14.4 C 3.2 km/h
13 28-07-2021 01:00:00 14.4 C 11.87 g/m*3 14.4 C 4.8 km/h
14 28-07-2021 01:05:00 14.4 C 11.87 g/m*3 14.4 C 6.4 km/h
15 28-07-2021 01:10:00 14.5 C 11.94 g/m*3 14.5 C 4.8 km/h
16 28-07-2021 01:15:00 14.4 C 11.87 g/m*3 14.4 C 6.4 km/h
17 28-07-2021 01:20:00 14.4 C 11.87 g/m*3 14.4 C 4.8 km/h
18 28-07-2021 01:25:00 14.4 C 11.87 g/m*3 14.4 C 3.2 km/h
19 28-07-2021 01:30:00 14.4 C 11.87 g/m*3 14.4 C 3.2 km/h
20 28-07-2021 01:35:00 14.3 C 11.79 g/m*3 14.3 C 1.6 km/h
21 28-07-2021 01:40:00 14.3 C 11.79 g/m*3 14.3 C 0 km/h
22 28-07-2021 01:45:00 14.2 C 11.72 g/m*3 14.2 C 0 km/h
23 28-07-2021 01:50:00 14.1 C 11.65 g/m*3 14.1 C 0 km/h
24 28-07-2021 01:55:00 14.1 C 11.65 g/m*3 14.1 C 0 km/h
25 28-07-2021 02:00:00 14 C 11.58 g/m*3 14 C 0 km/h
Sensor: Nr:Datum:Temp:Abs-Feuchte:Windchill:Wind:
Aussen-T/F 26 28-07-2021 02:05:00 13.9 C 11.51 g/m*3 13.9 C 0 km/h
27 28-07-2021 02:10:00 13.9 C 11.51 g/m*3 13.9 C 0 km/h
28 28-07-2021 02:15:00 13.9 C 11.51 g/m*3 13.9 C 0 km/h
29 28-07-2021 02:20:00 13.8 C 11.44 g/m*3 13.8 C 0 km/h
30 28-07-2021 02:25:00 13.8 C 11.44 g/m*3 13.8 C 0 km/h
31 28-07-2021 02:30:00 13.8 C 11.44 g/m*3 13.8 C 0 km/h
32 28-07-2021 02:35:00 13.8 C 11.44 g/m*3 13.8 C 0 km/h
33 28-07-2021 02:40:00 13.7 C 11.37 g/m*3 13.7 C 0 km/h
34 28-07-2021 02:45:00 13.7 C 11.37 g/m*3 13.7 C 0 km/h
35 28-07-2021 02:50:00 13.7 C 11.37 g/m*3 13.7 C 0 km/h
36 28-07-2021 02:55:00 13.8 C 11.44 g/m*3 13.8 C 0 km/h
37 28-07-2021 03:00:00 13.8 C 11.56 g/m*3 13.8 C 0 km/h
38 28-07-2021 03:05:00 13.9 C 11.63 g/m*3 13.9 C 0 km/h
39 28-07-2021 03:10:00 14 C 11.7 g/m*3 14 C 0 km/h
40 28-07-2021 03:15:00 14.1 C 11.77 g/m*3 14.1 C 0 km/h
41 28-07-2021 03:20:00 14.2 C 11.84 g/m*3 14.2 C 1.6 km/h
42 28-07-2021 03:25:00 14.3 C 11.92 g/m*3 14.3 C 0 km/h
43 28-07-2021 03:30:00 14.3 C 11.92 g/m*3 14.3 C 0 km/h
44 28-07-2021 03:35:00 14.3 C 11.92 g/m*3 14.3 C 0 km/h
45 28-07-2021 03:40:00 14.3 C 11.92 g/m*3 14.3 C 0 km/h
46 28-07-2021 03:45:00 14.3 C 11.92 g/m*3 14.3 C 0 km/h
47 28-07-2021 03:50:00 14.3 C 11.92 g/m*3 14.3 C 0 km/h
48 28-07-2021 03:55:00 14.3 C 11.92 g/m*3 14.3 C 0 km/h
49 28-07-2021 04:00:00 14.3 C 11.92 g/m*3 14.3 C 0 km/h
50 28-07-2021 04:05:00 14.3 C 11.92 g/m*3 14.3 C 0 km/h
Sensor: Nr:Datum:Temp:Abs-Feuchte:Windchill:Wind:
Aussen-T/F 51 28-07-2021 04:10:00 14.3 C 11.92 g/m*3 14.3 C 0 km/h
52 28-07-2021 04:15:00 14.3 C 11.92 g/m*3 14.3 C 0 km/h
53 28-07-2021 04:20:00 14.3 C 11.92 g/m*3 14.3 C 0 km/h
54 28-07-2021 04:25:00 14.2 C 11.84 g/m*3 14.2 C 0 km/h
55 28-07-2021 04:30:00 14.2 C 11.84 g/m*3 14.2 C 0 km/h
56 28-07-2021 04:35:00 14.2 C 11.84 g/m*3 14.2 C 0 km/h
57 28-07-2021 04:40:00 14.3 C 11.92 g/m*3 14.3 C 0 km/h
58 28-07-2021 04:45:00 14.3 C 11.92 g/m*3 14.3 C 0 km/h
59 28-07-2021 04:50:00 14.4 C 11.99 g/m*3 14.4 C 0 km/h
60 28-07-2021 04:55:00 14.5 C 12.06 g/m*3 14.5 C 0 km/h
61 28-07-2021 05:00:00 14.6 C 12.14 g/m*3 14.6 C 0 km/h
62 28-07-2021 05:05:00 14.6 C 12.14 g/m*3 14.6 C 0 km/h
63 28-07-2021 05:10:00 14.7 C 12.21 g/m*3 14.7 C 0 km/h
64 28-07-2021 05:15:00 14.7 C 12.21 g/m*3 14.7 C 0 km/h
65 28-07-2021 05:20:00 14.8 C 12.29 g/m*3 14.8 C 0 km/h
66 28-07-2021 05:25:00 14.8 C 12.29 g/m*3 14.8 C 0 km/h
67 28-07-2021 05:30:00 14.8 C 12.29 g/m*3 14.8 C 0 km/h
68 28-07-2021 05:35:00 14.9 C 12.36 g/m*3 14.9 C 0 km/h
69 28-07-2021 05:40:00 14.9 C 12.36 g/m*3 14.9 C 0 km/h
70 28-07-2021 05:45:00 15 C 12.44 g/m*3 15 C 0 km/h
71 28-07-2021 05:50:00 15 C 12.44 g/m*3 15 C 0 km/h
72 28-07-2021 05:55:00 15.1 C 12.51 g/m*3 15.1 C 0 km/h
73 28-07-2021 06:00:00 15.1 C 12.51 g/m*3 15.1 C 0 km/h
74 28-07-2021 06:05:00 15.1 C 12.51 g/m*3 15.1 C 0 km/h
75 28-07-2021 06:10:00 15.1 C 12.51 g/m*3 15.1 C 0 km/h
Sensor: Nr:Datum:Temp:Abs-Feuchte:Windchill:Wind:
Aussen-T/F 76 28-07-2021 06:15:00 15.1 C 12.51 g/m*3 15.1 C 0 km/h
77 28-07-2021 06:20:00 15.1 C 12.51 g/m*3 15.1 C 0 km/h
78 28-07-2021 06:25:00 15.1 C 12.51 g/m*3 15.1 C 0 km/h
79 28-07-2021 06:30:00 15.2 C 12.59 g/m*3 15.2 C 0 km/h
80 28-07-2021 06:35:00 15.3 C 12.67 g/m*3 15.3 C 1.6 km/h
81 28-07-2021 06:40:00 15.4 C 12.74 g/m*3 15.4 C 0 km/h
82 28-07-2021 06:45:00 15.4 C 12.74 g/m*3 15.4 C 0 km/h
83 28-07-2021 06:50:00 15.5 C 12.82 g/m*3 15.5 C 0 km/h
84 28-07-2021 06:55:00 15.5 C 12.82 g/m*3 15.5 C 0 km/h
85 28-07-2021 07:00:00 15.6 C 12.9 g/m*3 15.6 C 0 km/h
86 28-07-2021 07:05:00 15.6 C 12.9 g/m*3 15.6 C 0 km/h
87 28-07-2021 07:10:00 15.6 C 12.9 g/m*3 15.6 C 1.6 km/h
88 28-07-2021 07:15:00 15.7 C 12.98 g/m*3 15.7 C 0 km/h
89 28-07-2021 07:20:00 15.7 C 12.98 g/m*3 15.7 C 0 km/h
90 28-07-2021 07:25:00 15.8 C 13.06 g/m*3 15.8 C 0 km/h
91 28-07-2021 07:30:00 15.8 C 13.06 g/m*3 15.8 C 0 km/h
92 28-07-2021 07:35:00 15.9 C 13.14 g/m*3 15.9 C 0 km/h
93 28-07-2021 07:40:00 16 C 13.35 g/m*3 16 C 0 km/h
94 28-07-2021 07:45:00 16.1 C 13.43 g/m*3 16.1 C 0 km/h
95 28-07-2021 07:50:00 16.2 C 13.38 g/m*3 16.2 C 0 km/h
96 28-07-2021 07:55:00 16.3 C 13.6 g/m*3 16.3 C 0 km/h
97 28-07-2021 08:00:00 16.4 C 13.68 g/m*3 16.4 C 0 km/h
98 28-07-2021 08:05:00 16.5 C 13.76 g/m*3 16.5 C 0 km/h
99 28-07-2021 08:10:00 16.5 C 13.62 g/m*3 16.5 C 0 km/h
100 28-07-2021 08:15:00 16.6 C 13.7 g/m*3 16.6 C 0 km/h
Sensor: Nr:Datum:Temp:Abs-Feuchte:Windchill:Wind:
Aussen-T/F 101 28-07-2021 08:20:00 16.6 C 13.7 g/m*3 16.6 C 0 km/h
102 28-07-2021 08:25:00 16.7 C 13.79 g/m*3 16.7 C 0 km/h
103 28-07-2021 08:30:00 16.8 C 14.01 g/m*3 16.8 C 0 km/h
104 28-07-2021 08:35:00 16.9 C 14.1 g/m*3 16.9 C 0 km/h
105 28-07-2021 08:40:00 17 C 14.18 g/m*3 17 C 0 km/h
106 28-07-2021 08:45:00 17 C 14.04 g/m*3 17 C 3.2 km/h
107 28-07-2021 08:50:00 16.9 C 13.95 g/m*3 16.9 C 0 km/h
108 28-07-2021 08:55:00 17 C 14.18 g/m*3 17 C 0 km/h
109 28-07-2021 09:00:00 17.1 C 14.27 g/m*3 17.1 C 0 km/h
110 28-07-2021 09:05:00 17.3 C 14.44 g/m*3 17.3 C 0 km/h
111 28-07-2021 09:10:00 17.4 C 14.52 g/m*3 17.4 C 1.6 km/h
112 28-07-2021 09:15:00 17.4 C 14.52 g/m*3 17.4 C 0 km/h
113 28-07-2021 09:20:00 17.6 C 14.7 g/m*3 17.6 C 0 km/h
114 28-07-2021 09:25:00 17.6 C 14.7 g/m*3 17.6 C 1.6 km/h
115 28-07-2021 09:30:00 17.4 C 14.38 g/m*3 17.4 C 11.3 km/h
116 28-07-2021 09:35:00 17.2 C 14.2 g/m*3 17.2 C 9.7 km/h
117 28-07-2021 09:40:00 17.2 C 14.2 g/m*3 17.2 C 0 km/h
118 28-07-2021 09:45:00 17.4 C 14.38 g/m*3 17.4 C 4.8 km/h
119 28-07-2021 09:50:00 17.5 C 14.46 g/m*3 17.5 C 1.6 km/h
120 28-07-2021 09:55:00 17.5 C 14.46 g/m*3 17.5 C 1.6 km/h
121 28-07-2021 10:00:00 17.6 C 14.55 g/m*3 17.6 C 4.8 km/h
122 28-07-2021 10:05:00 17.6 C 14.55 g/m*3 17.6 C 1.6 km/h
123 28-07-2021 10:10:00 17.7 C 14.64 g/m*3 17.7 C 0 km/h
124 28-07-2021 10:15:00 17.8 C 14.72 g/m*3 17.8 C 4.8 km/h
125 28-07-2021 10:20:00 17.8 C 14.72 g/m*3 17.8 C 4.8 km/h
Sensor: Nr:Datum:Temp:Abs-Feuchte:Windchill:Wind:
Aussen-T/F 126 28-07-2021 10:25:00 17.8 C 14.72 g/m*3 17.8 C 6.4 km/h
127 28-07-2021 10:30:00 17.7 C 14.48 g/m*3 17.7 C 4.8 km/h
128 28-07-2021 10:35:00 17.8 C 14.57 g/m*3 17.8 C 4.8 km/h
129 28-07-2021 10:40:00 17.8 C 14.57 g/m*3 17.8 C 4.8 km/h
130 28-07-2021 10:45:00 17.9 C 14.66 g/m*3 17.9 C 8.1 km/h
131 28-07-2021 10:50:00 18 C 14.75 g/m*3 18 C 3.2 km/h
132 28-07-2021 10:55:00 18.1 C 14.83 g/m*3 18.1 C 1.6 km/h
133 28-07-2021 11:00:00 18.3 C 15.01 g/m*3 18.3 C 3.2 km/h
134 28-07-2021 11:05:00 18.4 C 14.94 g/m*3 18.4 C 6.4 km/h
135 28-07-2021 11:10:00 18.4 C 14.78 g/m*3 18.4 C 8.1 km/h
136 28-07-2021 11:15:00 18.4 C 14.63 g/m*3 18.4 C 11.3 km/h
137 28-07-2021 11:20:00 18.4 C 14.63 g/m*3 18.4 C 12.9 km/h
138 28-07-2021 11:25:00 18.4 C 14.47 g/m*3 18.4 C 12.9 km/h
139 28-07-2021 11:30:00 18.5 C 14.56 g/m*3 18.5 C 14.5 km/h
140 28-07-2021 11:35:00 18.6 C 14.48 g/m*3 18.6 C 14.5 km/h
141 28-07-2021 11:40:00 18.7 C 14.57 g/m*3 18.7 C 9.7 km/h
142 28-07-2021 11:45:00 18.9 C 14.58 g/m*3 18.9 C 14.5 km/h
143 28-07-2021 11:50:00 19.1 C 14.59 g/m*3 19.1 C 17.7 km/h
144 28-07-2021 11:55:00 19.1 C 14.43 g/m*3 19.1 C 11.3 km/h
145 28-07-2021 12:00:00 19.1 C 14.59 g/m*3 19.1 C 12.9 km/h
146 28-07-2021 12:05:00 19.2 C 14.51 g/m*3 19.2 C 19.3 km/h
147 28-07-2021 12:10:00 19.5 C 14.6 g/m*3 19.5 C 19.3 km/h
148 28-07-2021 12:15:00 19.7 C 14.43 g/m*3 19.7 C 19.3 km/h
149 28-07-2021 12:20:00 19.8 C 14.52 g/m*3 19.8 C 16.1 km/h
150 28-07-2021 12:25:00 19.9 C 14.6 g/m*3 19.9 C 11.3 km/h
Sensor: Nr:Datum:Temp:Abs-Feuchte:Windchill:Wind:
Aussen-T/F 151 28-07-2021 12:30:00 20 C 14.52 g/m*3 20 C 11.3 km/h
152 28-07-2021 12:35:00 20.1 C 14.43 g/m*3 20.1 C 17.7 km/h
153 28-07-2021 12:40:00 20.2 C 14.51 g/m*3 20.2 C 16.1 km/h
154 28-07-2021 12:45:00 20.2 C 14.51 g/m*3 20.2 C 16.1 km/h
155 28-07-2021 12:50:00 20.3 C 14.42 g/m*3 20.3 C 11.3 km/h
156 28-07-2021 12:55:00 20.4 C 14.51 g/m*3 20.4 C 17.7 km/h
157 28-07-2021 13:00:00 20.7 C 14.58 g/m*3 20.7 C 14.5 km/h
158 28-07-2021 13:05:00 20.8 C 14.49 g/m*3 20.8 C 17.7 km/h
159 28-07-2021 13:10:00 20.9 C 14.57 g/m*3 20.9 C 14.5 km/h
160 28-07-2021 13:15:00 20.9 C 14.75 g/m*3 20.9 C 9.7 km/h
161 28-07-2021 13:20:00 20.9 C 14.57 g/m*3 20.9 C 14.5 km/h
162 28-07-2021 13:25:00 20.9 C 14.57 g/m*3 20.9 C 11.3 km/h
163 28-07-2021 13:30:00 20.9 C 14.21 g/m*3 20.9 C 14.5 km/h
164 28-07-2021 13:35:00 21 C 14.29 g/m*3 21 C 11.3 km/h
165 28-07-2021 13:40:00 21.2 C 14.83 g/m*3 21.2 C 12.9 km/h
166 28-07-2021 13:45:00 21.1 C 14.19 g/m*3 21.1 C 16.1 km/h
167 28-07-2021 13:50:00 21 C 14.47 g/m*3 21 C 11.3 km/h
168 28-07-2021 13:55:00 20.9 C 14.21 g/m*3 20.9 C 11.3 km/h
169 28-07-2021 14:00:00 20.8 C 14.12 g/m*3 20.8 C 12.9 km/h
170 28-07-2021 14:05:00 20.8 C 14.12 g/m*3 20.8 C 12.9 km/h
171 28-07-2021 14:10:00 20.7 C 13.86 g/m*3 20.7 C 16.1 km/h
172 28-07-2021 14:15:00 20.6 C 14.14 g/m*3 20.6 C 9.7 km/h
173 28-07-2021 14:20:00 20.8 C 13.94 g/m*3 20.8 C 12.9 km/h
174 28-07-2021 14:25:00 21.1 C 14.37 g/m*3 21.1 C 16.1 km/h
175 28-07-2021 14:30:00 21.2 C 14.27 g/m*3 21.2 C 14.5 km/h
Sensor: Nr:Datum:Temp:Abs-Feuchte:Windchill:Wind:
Aussen-T/F 176 28-07-2021 14:35:00 21.3 C 14.17 g/m*3 21.3 C 12.9 km/h
177 28-07-2021 14:40:00 21.3 C 14.54 g/m*3 21.3 C 12.9 km/h
178 28-07-2021 14:45:00 21.3 C 14.54 g/m*3 21.3 C 14.5 km/h
179 28-07-2021 14:50:00 21.2 C 14.27 g/m*3 21.2 C 19.3 km/h
180 28-07-2021 14:55:00 21.4 C 14.44 g/m*3 21.4 C 11.3 km/h
181 28-07-2021 15:00:00 21.5 C 14.52 g/m*3 21.5 C 12.9 km/h
182 28-07-2021 15:05:00 21.6 C 14.6 g/m*3 21.6 C 19.3 km/h
183 28-07-2021 15:10:00 21.7 C 14.31 g/m*3 21.7 C 14.5 km/h
184 28-07-2021 15:15:00 21.8 C 14.97 g/m*3 21.8 C 19.3 km/h
185 28-07-2021 15:20:00 21.8 C 14.39 g/m*3 21.8 C 17.7 km/h
186 28-07-2021 15:25:00 21.8 C 14.77 g/m*3 21.8 C 11.3 km/h
187 28-07-2021 15:30:00 21.7 C 14.5 g/m*3 21.7 C 19.3 km/h
188 28-07-2021 15:35:00 22.1 C 14.45 g/m*3 22.1 C 16.1 km/h
189 28-07-2021 15:40:00 22.3 C 14.22 g/m*3 22.3 C 12.9 km/h
190 28-07-2021 15:45:00 22.4 C 14.5 g/m*3 22.4 C 12.9 km/h
191 28-07-2021 15:50:00 22.7 C 15.15 g/m*3 22.7 C 9.7 km/h
192 28-07-2021 15:55:00 23 C 14.8 g/m*3 23 C 14.5 km/h
193 28-07-2021 16:00:00 23.2 C 14.55 g/m*3 23.2 C 12.9 km/h
194 28-07-2021 16:05:00 23.3 C 14.43 g/m*3 23.3 C 16.1 km/h
195 28-07-2021 16:10:00 23.6 C 14.46 g/m*3 23.6 C 16.1 km/h
196 28-07-2021 16:15:00 23.8 C 14.41 g/m*3 23.8 C 16.1 km/h
197 28-07-2021 16:20:00 24 C 14.14 g/m*3 24 C 17.7 km/h
198 28-07-2021 16:25:00 23.9 C 14.28 g/m*3 23.9 C 11.3 km/h
199 28-07-2021 16:30:00 23.8 C 14.84 g/m*3 23.8 C 9.7 km/h
200 28-07-2021 16:35:00 24.1 C 14.88 g/m*3 24.1 C 9.7 km/h
Sensor: Nr:Datum:Temp:Abs-Feuchte:Windchill:Wind:
Aussen-T/F 201 28-07-2021 16:40:00 24.2 C 14.52 g/m*3 24.2 C 14.5 km/h
202 28-07-2021 16:45:00 24.1 C 14.66 g/m*3 24.1 C 9.7 km/h
203 28-07-2021 16:50:00 24 C 14.36 g/m*3 24 C 8.1 km/h
204 28-07-2021 16:55:00 24 C 14.58 g/m*3 24 C 8.1 km/h
205 28-07-2021 17:00:00 24 C 14.58 g/m*3 24 C 14.5 km/h
206 28-07-2021 17:05:00 24 C 14.36 g/m*3 24 C 17.7 km/h
207 28-07-2021 17:10:00 24 C 14.14 g/m*3 24 C 14.5 km/h
208 28-07-2021 17:15:00 23.9 C 14.06 g/m*3 23.9 C 17.7 km/h
209 28-07-2021 17:20:00 24.1 C 13.13 g/m*3 24.1 C 20.9 km/h
210 28-07-2021 17:25:00 24.2 C 14.74 g/m*3 24.2 C 11.3 km/h
211 28-07-2021 17:30:00 24.4 C 14.02 g/m*3 24.4 C 14.5 km/h
212 28-07-2021 17:35:00 24.5 C 14.32 g/m*3 24.5 C 8.1 km/h
213 28-07-2021 17:40:00 24.6 C 13.5 g/m*3 24.6 C 14.5 km/h
214 28-07-2021 17:45:00 24.5 C 13.43 g/m*3 24.5 C 17.7 km/h
215 28-07-2021 17:50:00 24.5 C 13.2 g/m*3 24.5 C 9.7 km/h
216 28-07-2021 17:55:00 24.3 C 13.5 g/m*3 24.3 C 16.1 km/h
217 28-07-2021 18:00:00 24.2 C 13.42 g/m*3 24.2 C 17.7 km/h
218 28-07-2021 18:05:00 24.2 C 12.98 g/m*3 24.2 C 14.5 km/h
219 28-07-2021 18:10:00 24.1 C 12.91 g/m*3 24.1 C 16.1 km/h
220 28-07-2021 18:15:00 24.3 C 13.06 g/m*3 24.3 C 14.5 km/h
221 28-07-2021 18:20:00 24.3 C 12.61 g/m*3 24.3 C 20.9 km/h
222 28-07-2021 18:25:00 23.9 C 12.33 g/m*3 23.9 C 16.1 km/h
223 28-07-2021 18:30:00 23.8 C 12.91 g/m*3 23.8 C 12.9 km/h
224 28-07-2021 18:35:00 23.9 C 12.76 g/m*3 23.9 C 12.9 km/h
225 28-07-2021 18:40:00 24.3 C 13.28 g/m*3 24.3 C 12.9 km/h
Sensor: Nr:Datum:Temp:Abs-Feuchte:Windchill:Wind:
Aussen-T/F 226 28-07-2021 18:45:00 24.4 C 12.91 g/m*3 24.4 C 12.9 km/h
227 28-07-2021 18:50:00 24.2 C 12.54 g/m*3 24.2 C 14.5 km/h
228 28-07-2021 18:55:00 24.3 C 13.28 g/m*3 24.3 C 9.7 km/h
229 28-07-2021 19:00:00 24.2 C 12.76 g/m*3 24.2 C 14.5 km/h
230 28-07-2021 19:05:00 23.9 C 12.33 g/m*3 23.9 C 12.9 km/h
231 28-07-2021 19:10:00 23.4 C 11.78 g/m*3 23.4 C 19.3 km/h
232 28-07-2021 19:15:00 23.1 C 13.23 g/m*3 23.1 C 11.3 km/h
233 28-07-2021 19:20:00 23.1 C 13.44 g/m*3 23.1 C 9.7 km/h
234 28-07-2021 19:25:00 23.2 C 13.31 g/m*3 23.2 C 8.1 km/h
235 28-07-2021 19:30:00 22.9 C 12.06 g/m*3 22.9 C 16.1 km/h
236 28-07-2021 19:35:00 22.7 C 12.32 g/m*3 22.7 C 14.5 km/h
237 28-07-2021 19:40:00 22.7 C 12.73 g/m*3 22.7 C 9.7 km/h
238 28-07-2021 19:45:00 22.4 C 12.31 g/m*3 22.4 C 12.9 km/h
239 28-07-2021 19:50:00 22.2 C 12.57 g/m*3 22.2 C 6.4 km/h
240 28-07-2021 19:55:00 21.9 C 13.12 g/m*3 21.9 C 12.9 km/h
241 28-07-2021 20:00:00 21.6 C 12.14 g/m*3 21.6 C 12.9 km/h
242 28-07-2021 20:05:00 21.4 C 12.37 g/m*3 21.4 C 8.1 km/h
243 28-07-2021 20:10:00 21.2 C 12.05 g/m*3 21.2 C 16.1 km/h
244 28-07-2021 20:15:00 21.2 C 12.79 g/m*3 21.2 C 6.4 km/h
245 28-07-2021 20:20:00 21.2 C 12.79 g/m*3 21.2 C 11.3 km/h
246 28-07-2021 20:25:00 21.2 C 12.23 g/m*3 21.2 C 11.3 km/h
247 28-07-2021 20:30:00 21.3 C 12.68 g/m*3 21.3 C 16.1 km/h
248 28-07-2021 20:35:00 21.3 C 12.86 g/m*3 21.3 C 4.8 km/h
249 28-07-2021 20:40:00 21.3 C 12.86 g/m*3 21.3 C 6.4 km/h
250 28-07-2021 20:45:00 21.2 C 12.97 g/m*3 21.2 C 8.1 km/h
Sensor: Nr:Datum:Temp:Abs-Feuchte:Windchill:Wind:
Aussen-T/F 251 28-07-2021 20:50:00 21.1 C 13.08 g/m*3 21.1 C 6.4 km/h
252 28-07-2021 20:55:00 20.8 C 13.22 g/m*3 20.8 C 6.4 km/h
253 28-07-2021 21:00:00 20.6 C 13.24 g/m*3 20.6 C 4.8 km/h
254 28-07-2021 21:05:00 20.3 C 13.37 g/m*3 20.3 C 3.2 km/h
255 28-07-2021 21:10:00 20.1 C 13.21 g/m*3 20.1 C 4.8 km/h
256 28-07-2021 21:15:00 19.7 C 13.08 g/m*3 19.7 C 4.8 km/h
257 28-07-2021 21:20:00 19.4 C 12.85 g/m*3 19.4 C 3.2 km/h
258 28-07-2021 21:25:00 19.2 C 13.03 g/m*3 19.2 C 3.2 km/h
259 28-07-2021 21:30:00 18.9 C 12.96 g/m*3 18.9 C 3.2 km/h
260 28-07-2021 21:35:00 18.7 C 12.97 g/m*3 18.7 C 4.8 km/h
261 28-07-2021 21:40:00 18.4 C 12.9 g/m*3 18.4 C 4.8 km/h
262 28-07-2021 21:45:00 18.2 C 12.75 g/m*3 18.2 C 4.8 km/h
263 28-07-2021 21:50:00 17.9 C 12.67 g/m*3 17.9 C 4.8 km/h
264 28-07-2021 21:55:00 17.7 C 12.52 g/m*3 17.7 C 4.8 km/h
265 28-07-2021 22:00:00 17.5 C 12.52 g/m*3 17.5 C 6.4 km/h
266 28-07-2021 22:05:00 17.3 C 12.52 g/m*3 17.3 C 3.2 km/h
267 28-07-2021 22:10:00 17.2 C 12.45 g/m*3 17.2 C 6.4 km/h
268 28-07-2021 22:15:00 17.1 C 12.52 g/m*3 17.1 C 3.2 km/h
269 28-07-2021 22:20:00 16.9 C 12.37 g/m*3 16.9 C 4.8 km/h
270 28-07-2021 22:25:00 16.8 C 12.44 g/m*3 16.8 C 6.4 km/h
271 28-07-2021 22:30:00 16.8 C 12.44 g/m*3 16.8 C 6.4 km/h
272 28-07-2021 22:35:00 16.7 C 12.36 g/m*3 16.7 C 3.2 km/h
273 28-07-2021 22:40:00 16.7 C 12.51 g/m*3 16.7 C 0 km/h
274 28-07-2021 22:45:00 16.7 C 12.51 g/m*3 16.7 C 4.8 km/h
275 28-07-2021 22:50:00 16.6 C 12.43 g/m*3 16.6 C 1.6 km/h
Sensor: Nr:Datum:Temp:Abs-Feuchte:Windchill:Wind:
Aussen-T/F 276 28-07-2021 22:55:00 16.6 C 12.57 g/m*3 16.6 C 3.2 km/h
277 28-07-2021 23:00:00 16.6 C 12.43 g/m*3 16.6 C 4.8 km/h
278 28-07-2021 23:05:00 16.5 C 12.5 g/m*3 16.5 C 4.8 km/h
279 28-07-2021 23:10:00 16.3 C 12.21 g/m*3 16.3 C 4.8 km/h
280 28-07-2021 23:15:00 16.2 C 12.27 g/m*3 16.2 C 3.2 km/h
281 28-07-2021 23:20:00 16.1 C 12.2 g/m*3 16.1 C 3.2 km/h
282 28-07-2021 23:25:00 16 C 12.13 g/m*3 16 C 4.8 km/h
283 28-07-2021 23:30:00 15.8 C 12.11 g/m*3 15.8 C 3.2 km/h
284 28-07-2021 23:35:00 15.7 C 12.04 g/m*3 15.7 C 3.2 km/h
285 28-07-2021 23:40:00 15.7 C 12.04 g/m*3 15.7 C 1.6 km/h
286 28-07-2021 23:45:00 15.7 C 12.18 g/m*3 15.7 C 3.2 km/h
287 28-07-2021 23:50:00 15.6 C 12.1 g/m*3 15.6 C 1.6 km/h
288 28-07-2021 23:55:00 15.6 C 12.1 g/m*3 15.6 C 1.6 km/h
289 29-07-2021 00:00:00 15.6 C 12.1 g/m*3 15.6 C 4.8 km/h
290 29-07-2021 00:05:00 15.5 C 12.03 g/m*3 15.5 C 1.6 km/h
291 29-07-2021 00:10:00 15.4 C 11.96 g/m*3 15.4 C 4.8 km/h
292 29-07-2021 00:15:00 15.4 C 12.09 g/m*3 15.4 C 4.8 km/h
293 29-07-2021 00:20:00 15.4 C 12.09 g/m*3 15.4 C 0 km/h
294 29-07-2021 00:25:00 15.4 C 12.09 g/m*3 15.4 C 3.2 km/h
295 29-07-2021 00:30:00 15.4 C 12.09 g/m*3 15.4 C 1.6 km/h
296 29-07-2021 00:35:00 15.4 C 12.09 g/m*3 15.4 C 1.6 km/h
297 29-07-2021 00:40:00 15.3 C 12.01 g/m*3 15.3 C 1.6 km/h
298 29-07-2021 00:45:00 15.3 C 12.01 g/m*3 15.3 C 0 km/h
299 29-07-2021 00:50:00 15.3 C 12.01 g/m*3 15.3 C 0 km/h
300 29-07-2021 00:55:00 15.3 C 12.01 g/m*3 15.3 C 0 km/h
Sensor: Nr:Datum:Temp:Abs-Feuchte:Windchill:Wind:
Aussen-T/F 301 29-07-2021 01:00:00 15.3 C 12.01 g/m*3 15.3 C 1.6 km/h
302 29-07-2021 01:05:00 15.2 C 11.94 g/m*3 15.2 C 0 km/h
303 29-07-2021 01:10:00 15.1 C 11.87 g/m*3 15.1 C 0 km/h
304 29-07-2021 01:15:00 14.9 C 11.73 g/m*3 14.9 C 3.2 km/h
305 29-07-2021 01:20:00 14.9 C 11.73 g/m*3 14.9 C 1.6 km/h
306 29-07-2021 01:25:00 14.8 C 11.65 g/m*3 14.8 C 1.6 km/h
307 29-07-2021 01:30:00 14.8 C 11.65 g/m*3 14.8 C 1.6 km/h
308 29-07-2021 01:35:00 14.8 C 11.78 g/m*3 14.8 C 1.6 km/h
309 29-07-2021 01:40:00 14.7 C 11.71 g/m*3 14.7 C 0 km/h
310 29-07-2021 01:45:00 14.7 C 11.71 g/m*3 14.7 C 1.6 km/h
311 29-07-2021 01:50:00 14.7 C 11.71 g/m*3 14.7 C 1.6 km/h
312 29-07-2021 01:55:00 14.6 C 11.64 g/m*3 14.6 C 0 km/h
313 29-07-2021 02:00:00 14.6 C 11.64 g/m*3 14.6 C 0 km/h
314 29-07-2021 02:05:00 14.6 C 11.64 g/m*3 14.6 C 0 km/h
315 29-07-2021 02:10:00 14.6 C 11.64 g/m*3 14.6 C 0 km/h
316 29-07-2021 02:15:00 14.7 C 11.71 g/m*3 14.7 C 1.6 km/h
317 29-07-2021 02:20:00 14.7 C 11.71 g/m*3 14.7 C 0 km/h
318 29-07-2021 02:25:00 14.8 C 11.78 g/m*3 14.8 C 3.2 km/h
319 29-07-2021 02:30:00 14.8 C 11.78 g/m*3 14.8 C 0 km/h
320 29-07-2021 02:35:00 14.8 C 11.78 g/m*3 14.8 C 0 km/h
321 29-07-2021 02:40:00 14.9 C 11.85 g/m*3 14.9 C 0 km/h
322 29-07-2021 02:45:00 14.9 C 11.85 g/m*3 14.9 C 0 km/h
323 29-07-2021 02:50:00 14.9 C 11.85 g/m*3 14.9 C 0 km/h
324 29-07-2021 02:55:00 15 C 11.93 g/m*3 15 C 1.6 km/h
325 29-07-2021 03:00:00 15 C 11.93 g/m*3 15 C 0 km/h
Sensor: Nr:Datum:Temp:Abs-Feuchte:Windchill:Wind:
Aussen-T/F 326 29-07-2021 03:05:00 15 C 11.93 g/m*3 15 C 0 km/h
327 29-07-2021 03:10:00 15 C 11.93 g/m*3 15 C 1.6 km/h
328 29-07-2021 03:15:00 15 C 11.8 g/m*3 15 C 0 km/h
329 29-07-2021 03:20:00 15 C 11.93 g/m*3 15 C 1.6 km/h
330 29-07-2021 03:25:00 15 C 11.8 g/m*3 15 C 1.6 km/h
331 29-07-2021 03:30:00 15.1 C 11.87 g/m*3 15.1 C 3.2 km/h
332 29-07-2021 03:35:00 15.1 C 11.87 g/m*3 15.1 C 0 km/h
333 29-07-2021 03:40:00 15.2 C 11.94 g/m*3 15.2 C 1.6 km/h
334 29-07-2021 03:45:00 15.2 C 11.81 g/m*3 15.2 C 1.6 km/h
335 29-07-2021 03:50:00 15.2 C 11.81 g/m*3 15.2 C 1.6 km/h
336 29-07-2021 03:55:00 15.1 C 11.61 g/m*3 15.1 C 0 km/h
337 29-07-2021 04:00:00 15 C 11.54 g/m*3 15 C 1.6 km/h
338 29-07-2021 04:05:00 15 C 11.67 g/m*3 15 C 0 km/h
339 29-07-2021 04:10:00 14.9 C 11.6 g/m*3 14.9 C 1.6 km/h
340 29-07-2021 04:15:00 14.8 C 11.53 g/m*3 14.8 C 0 km/h
341 29-07-2021 04:20:00 14.8 C 11.53 g/m*3 14.8 C 1.6 km/h
342 29-07-2021 04:25:00 14.7 C 11.46 g/m*3 14.7 C 1.6 km/h
343 29-07-2021 04:30:00 14.7 C 11.46 g/m*3 14.7 C 3.2 km/h
344 29-07-2021 04:35:00 14.6 C 11.39 g/m*3 14.6 C 1.6 km/h
345 29-07-2021 04:40:00 14.6 C 11.51 g/m*3 14.6 C 3.2 km/h
346 29-07-2021 04:45:00 14.6 C 11.51 g/m*3 14.6 C 1.6 km/h
347 29-07-2021 04:50:00 14.6 C 11.51 g/m*3 14.6 C 4.8 km/h
348 29-07-2021 04:55:00 14.7 C 11.58 g/m*3 14.7 C 4.8 km/h
349 29-07-2021 05:00:00 14.8 C 11.65 g/m*3 14.8 C 0 km/h
350 29-07-2021 05:05:00 14.8 C 11.65 g/m*3 14.8 C 4.8 km/h
Sensor: Nr:Datum:Temp:Abs-Feuchte:Windchill:Wind:
Aussen-T/F 351 29-07-2021 05:10:00 14.9 C 11.6 g/m*3 14.9 C 8.1 km/h
352 29-07-2021 05:15:00 15 C 11.67 g/m*3 15 C 4.8 km/h
353 29-07-2021 05:20:00 15.1 C 11.61 g/m*3 15.1 C 6.4 km/h
354 29-07-2021 05:25:00 15.2 C 11.68 g/m*3 15.2 C 1.6 km/h
355 29-07-2021 05:30:00 15.3 C 11.75 g/m*3 15.3 C 1.6 km/h
356 29-07-2021 05:35:00 15.3 C 11.75 g/m*3 15.3 C 3.2 km/h
357 29-07-2021 05:40:00 15.3 C 11.75 g/m*3 15.3 C 0 km/h
358 29-07-2021 05:45:00 15.4 C 11.82 g/m*3 15.4 C 0 km/h
359 29-07-2021 05:50:00 15.4 C 11.82 g/m*3 15.4 C 3.2 km/h
360 29-07-2021 05:55:00 15.4 C 11.82 g/m*3 15.4 C 8.1 km/h
361 29-07-2021 06:00:00 15.4 C 11.82 g/m*3 15.4 C 0 km/h
362 29-07-2021 06:05:00 15.4 C 11.82 g/m*3 15.4 C 1.6 km/h
363 29-07-2021 06:10:00 15.4 C 11.82 g/m*3 15.4 C 0 km/h
364 29-07-2021 06:15:00 15.4 C 11.82 g/m*3 15.4 C 1.6 km/h
365 29-07-2021 06:20:00 15.4 C 11.82 g/m*3 15.4 C 0 km/h
366 29-07-2021 06:25:00 15.3 C 11.75 g/m*3 15.3 C 1.6 km/h
367 29-07-2021 06:30:00 15.3 C 11.88 g/m*3 15.3 C 1.6 km/h
368 29-07-2021 06:35:00 15.3 C 11.88 g/m*3 15.3 C 1.6 km/h
369 29-07-2021 06:40:00 15.2 C 11.81 g/m*3 15.2 C 0 km/h
370 29-07-2021 06:45:00 15.2 C 11.81 g/m*3 15.2 C 0 km/h
371 29-07-2021 06:50:00 15.1 C 11.74 g/m*3 15.1 C 0 km/h
372 29-07-2021 06:55:00 15 C 11.67 g/m*3 15 C 0 km/h
373 29-07-2021 07:00:00 15 C 11.8 g/m*3 15 C 0 km/h
374 29-07-2021 07:05:00 15 C 11.8 g/m*3 15 C 0 km/h
375 29-07-2021 07:10:00 15.1 C 12 g/m*3 15.1 C 1.6 km/h
Sensor: Nr:Datum:Temp:Abs-Feuchte:Windchill:Wind:
Aussen-T/F 376 29-07-2021 07:15:00 15.2 C 12.07 g/m*3 15.2 C 0 km/h
377 29-07-2021 07:20:00 15.3 C 12.14 g/m*3 15.3 C 0 km/h
378 29-07-2021 07:25:00 15.4 C 12.22 g/m*3 15.4 C 1.6 km/h
379 29-07-2021 07:30:00 15.6 C 12.37 g/m*3 15.6 C 1.6 km/h
380 29-07-2021 07:35:00 15.7 C 12.31 g/m*3 15.7 C 6.4 km/h
381 29-07-2021 07:40:00 15.8 C 12.25 g/m*3 15.8 C 8.1 km/h
382 29-07-2021 07:45:00 16.1 C 12.47 g/m*3 16.1 C 1.6 km/h
383 29-07-2021 07:50:00 16.2 C 12.41 g/m*3 16.2 C 9.7 km/h
384 29-07-2021 07:55:00 16.4 C 12.42 g/m*3 16.4 C 9.7 km/h
385 29-07-2021 08:00:00 16.6 C 12.43 g/m*3 16.6 C 4.8 km/h
386 29-07-2021 08:05:00 16.7 C 12.51 g/m*3 16.7 C 3.2 km/h
387 29-07-2021 08:10:00 16.8 C 12.3 g/m*3 16.8 C 6.4 km/h
388 29-07-2021 08:15:00 17 C 12.44 g/m*3 17 C 4.8 km/h
389 29-07-2021 08:20:00 17.1 C 12.37 g/m*3 17.1 C 8.1 km/h
390 29-07-2021 08:25:00 17.3 C 12.37 g/m*3 17.3 C 11.3 km/h
391 29-07-2021 08:30:00 17.4 C 12.45 g/m*3 17.4 C 9.7 km/h
392 29-07-2021 08:35:00 17.6 C 12.45 g/m*3 17.6 C 8.1 km/h
393 29-07-2021 08:40:00 17.7 C 12.37 g/m*3 17.7 C 9.7 km/h
394 29-07-2021 08:45:00 17.7 C 12.22 g/m*3 17.7 C 11.3 km/h
395 29-07-2021 08:50:00 17.8 C 12.29 g/m*3 17.8 C 9.7 km/h
396 29-07-2021 08:55:00 17.8 C 12.45 g/m*3 17.8 C 8.1 km/h
397 29-07-2021 09:00:00 17.9 C 12.37 g/m*3 17.9 C 8.1 km/h
398 29-07-2021 09:05:00 17.9 C 12.37 g/m*3 17.9 C 12.9 km/h
399 29-07-2021 09:10:00 17.9 C 12.52 g/m*3 17.9 C 9.7 km/h
400 29-07-2021 09:15:00 18 C 12.59 g/m*3 18 C 6.4 km/h
Sensor: Nr:Datum:Temp:Abs-Feuchte:Windchill:Wind:
Aussen-T/F 401 29-07-2021 09:20:00 18.1 C 12.36 g/m*3 18.1 C 11.3 km/h
402 29-07-2021 09:25:00 18.2 C 12.59 g/m*3 18.2 C 9.7 km/h
403 29-07-2021 09:30:00 18.2 C 12.28 g/m*3 18.2 C 9.7 km/h
404 29-07-2021 09:35:00 18.1 C 12.05 g/m*3 18.1 C 16.1 km/h
405 29-07-2021 09:40:00 18.2 C 12.12 g/m*3 18.2 C 24.1 km/h
406 29-07-2021 09:45:00 18.3 C 12.35 g/m*3 18.3 C 14.5 km/h
407 29-07-2021 09:50:00 18.4 C 12.27 g/m*3 18.4 C 17.7 km/h
408 29-07-2021 09:55:00 18.6 C 12.26 g/m*3 18.6 C 11.3 km/h
409 29-07-2021 10:00:00 18.7 C 12.33 g/m*3 18.7 C 11.3 km/h
410 29-07-2021 10:05:00 18.8 C 12.4 g/m*3 18.8 C 12.9 km/h
411 29-07-2021 10:10:00 18.9 C 12.31 g/m*3 18.9 C 20.9 km/h
412 29-07-2021 10:15:00 18.9 C 12.47 g/m*3 18.9 C 14.5 km/h
413 29-07-2021 10:20:00 18.9 C 12.15 g/m*3 18.9 C 11.3 km/h
414 29-07-2021 10:25:00 18.8 C 12.24 g/m*3 18.8 C 11.3 km/h
415 29-07-2021 10:30:00 18.8 C 12.08 g/m*3 18.8 C 11.3 km/h
416 29-07-2021 10:35:00 18.8 C 11.92 g/m*3 18.8 C 14.5 km/h
417 29-07-2021 10:40:00 18.8 C 12.24 g/m*3 18.8 C 12.9 km/h
418 29-07-2021 10:45:00 18.7 C 11.85 g/m*3 18.7 C 12.9 km/h
419 29-07-2021 10:50:00 18.7 C 12.01 g/m*3 18.7 C 12.9 km/h
420 29-07-2021 10:55:00 18.7 C 12.01 g/m*3 18.7 C 16.1 km/h
421 29-07-2021 11:00:00 18.8 C 12.24 g/m*3 18.8 C 8.1 km/h
422 29-07-2021 11:05:00 18.7 C 11.85 g/m*3 18.7 C 19.3 km/h
423 29-07-2021 11:10:00 18.7 C 12.01 g/m*3 18.7 C 14.5 km/h
424 29-07-2021 11:15:00 18.7 C 11.69 g/m*3 18.7 C 12.9 km/h
425 29-07-2021 11:20:00 18.7 C 12.01 g/m*3 18.7 C 3.2 km/h
Sensor: Nr:Datum:Temp:Abs-Feuchte:Windchill:Wind:
Aussen-T/F 426 29-07-2021 11:25:00 18.7 C 11.85 g/m*3 18.7 C 8.1 km/h
427 29-07-2021 11:30:00 18.9 C 11.99 g/m*3 18.9 C 14.5 km/h
428 29-07-2021 11:35:00 19.2 C 12.2 g/m*3 19.2 C 20.9 km/h
429 29-07-2021 11:40:00 19.2 C 11.87 g/m*3 19.2 C 8.1 km/h
430 29-07-2021 11:45:00 19.2 C 11.54 g/m*3 19.2 C 20.9 km/h
431 29-07-2021 11:50:00 19.2 C 11.54 g/m*3 19.2 C 16.1 km/h
432 29-07-2021 11:55:00 19.2 C 11.71 g/m*3 19.2 C 17.7 km/h
433 29-07-2021 12:00:00 19.2 C 11.54 g/m*3 19.2 C 14.5 km/h
434 29-07-2021 12:05:00 19.3 C 11.28 g/m*3 19.3 C 14.5 km/h
435 29-07-2021 12:10:00 19.3 C 11.28 g/m*3 19.3 C 17.7 km/h
436 29-07-2021 12:15:00 19.4 C 11.51 g/m*3 19.4 C 12.9 km/h
437 29-07-2021 12:20:00 19.6 C 11.65 g/m*3 19.6 C 11.3 km/h
438 29-07-2021 12:25:00 19.6 C 11.99 g/m*3 19.6 C 8.1 km/h
439 29-07-2021 12:30:00 19.6 C 11.99 g/m*3 19.6 C 6.4 km/h
440 29-07-2021 12:35:00 19.7 C 11.72 g/m*3 19.7 C 8.1 km/h
441 29-07-2021 12:40:00 19.6 C 11.48 g/m*3 19.6 C 19.3 km/h
442 29-07-2021 12:45:00 19.6 C 11.14 g/m*3 19.6 C 20.9 km/h
443 29-07-2021 12:50:00 19.6 C 11.48 g/m*3 19.6 C 16.1 km/h
444 29-07-2021 12:55:00 19.8 C 11.61 g/m*3 19.8 C 11.3 km/h
445 29-07-2021 13:00:00 20 C 11.75 g/m*3 20 C 11.3 km/h
446 29-07-2021 13:05:00 20.2 C 11.54 g/m*3 20.2 C 17.7 km/h
447 29-07-2021 13:10:00 20.4 C 10.79 g/m*3 20.4 C 24.1 km/h
448 29-07-2021 13:15:00 20.4 C 10.97 g/m*3 20.4 C 12.9 km/h
449 29-07-2021 13:20:00 20.3 C 11.08 g/m*3 20.3 C 14.5 km/h
450 29-07-2021 13:25:00 20.1 C 10.95 g/m*3 20.1 C 9.7 km/h
Sensor: Nr:Datum:Temp:Abs-Feuchte:Windchill:Wind:
Aussen-T/F 451 29-07-2021 13:30:00 19.9 C 10.65 g/m*3 19.9 C 11.3 km/h
452 29-07-2021 13:35:00 20 C 11.41 g/m*3 20 C 14.5 km/h
453 29-07-2021 13:40:00 20.2 C 11.71 g/m*3 20.2 C 11.3 km/h
454 29-07-2021 13:45:00 20.2 C 11.37 g/m*3 20.2 C 14.5 km/h
455 29-07-2021 13:50:00 20.3 C 11.08 g/m*3 20.3 C 11.3 km/h
456 29-07-2021 13:55:00 20.4 C 10.61 g/m*3 20.4 C 19.3 km/h
457 29-07-2021 14:00:00 20.3 C 10.73 g/m*3 20.3 C 16.1 km/h
458 29-07-2021 14:05:00 20.2 C 11.19 g/m*3 20.2 C 4.8 km/h
459 29-07-2021 14:10:00 20.3 C 10.9 g/m*3 20.3 C 12.9 km/h
460 29-07-2021 14:15:00 20.6 C 10.74 g/m*3 20.6 C 19.3 km/h
461 29-07-2021 14:20:00 20.8 C 10.5 g/m*3 20.8 C 19.3 km/h
462 29-07-2021 14:25:00 20.9 C 11.11 g/m*3 20.9 C 11.3 km/h
463 29-07-2021 14:30:00 20.9 C 11.66 g/m*3 20.9 C 8.1 km/h
464 29-07-2021 14:35:00 20.8 C 11.23 g/m*3 20.8 C 11.3 km/h
465 29-07-2021 14:40:00 20.7 C 11.16 g/m*3 20.7 C 17.7 km/h
466 29-07-2021 14:45:00 20.7 C 11.52 g/m*3 20.7 C 11.3 km/h
467 29-07-2021 14:50:00 20.8 C 11.77 g/m*3 20.8 C 8.1 km/h
468 29-07-2021 14:55:00 20.9 C 11.66 g/m*3 20.9 C 4.8 km/h
469 29-07-2021 15:00:00 20.8 C 11.59 g/m*3 20.8 C 9.7 km/h
470 29-07-2021 15:05:00 20.5 C 10.68 g/m*3 20.5 C 19.3 km/h
471 29-07-2021 15:10:00 20.3 C 10.55 g/m*3 20.3 C 19.3 km/h
472 29-07-2021 15:15:00 20.5 C 11.03 g/m*3 20.5 C 9.7 km/h
473 29-07-2021 15:20:00 20.8 C 10.5 g/m*3 20.8 C 14.5 km/h
474 29-07-2021 15:25:00 20.9 C 11.29 g/m*3 20.9 C 14.5 km/h
475 29-07-2021 15:30:00 20.9 C 10.93 g/m*3 20.9 C 20.9 km/h
Sensor: Nr:Datum:Temp:Abs-Feuchte:Windchill:Wind:
Aussen-T/F 476 29-07-2021 15:35:00 20.7 C 10.62 g/m*3 20.7 C 19.3 km/h
477 29-07-2021 15:40:00 20.7 C 10.62 g/m*3 20.7 C 16.1 km/h
478 29-07-2021 15:45:00 20.8 C 11.05 g/m*3 20.8 C 19.3 km/h
479 29-07-2021 15:50:00 20.9 C 10.93 g/m*3 20.9 C 14.5 km/h
480 29-07-2021 15:55:00 21.1 C 11.42 g/m*3 21.1 C 4.8 km/h
481 29-07-2021 16:00:00 21.3 C 11.93 g/m*3 21.3 C 6.4 km/h
482 29-07-2021 16:05:00 21.7 C 11.06 g/m*3 21.7 C 8.1 km/h
483 29-07-2021 16:10:00 21.7 C 11.06 g/m*3 21.7 C 16.1 km/h
484 29-07-2021 16:15:00 21.5 C 11.5 g/m*3 21.5 C 9.7 km/h
485 29-07-2021 16:20:00 21.4 C 11.62 g/m*3 21.4 C 4.8 km/h
486 29-07-2021 16:25:00 21.4 C 11.25 g/m*3 21.4 C 9.7 km/h
487 29-07-2021 16:30:00 21.3 C 11.74 g/m*3 21.3 C 11.3 km/h
488 29-07-2021 16:35:00 21.3 C 11.74 g/m*3 21.3 C 8.1 km/h
489 29-07-2021 16:40:00 22 C 11.65 g/m*3 22 C 12.9 km/h
490 29-07-2021 16:45:00 22.7 C 11.11 g/m*3 22.7 C 16.1 km/h
491 29-07-2021 16:50:00 22.7 C 11.52 g/m*3 22.7 C 14.5 km/h
492 29-07-2021 16:55:00 22.6 C 11.05 g/m*3 22.6 C 16.1 km/h
493 29-07-2021 17:00:00 22.9 C 10.63 g/m*3 22.9 C 16.1 km/h
494 29-07-2021 17:05:00 22.9 C 10.42 g/m*3 22.9 C 14.5 km/h
495 29-07-2021 17:10:00 23.1 C 11.58 g/m*3 23.1 C 16.1 km/h
496 29-07-2021 17:15:00 23.3 C 10.87 g/m*3 23.3 C 22.5 km/h
497 29-07-2021 17:20:00 23.3 C 10.87 g/m*3 23.3 C 14.5 km/h
498 29-07-2021 17:25:00 23.2 C 10.6 g/m*3 23.2 C 19.3 km/h
499 29-07-2021 17:30:00 23.1 C 10.96 g/m*3 23.1 C 8.1 km/h
500 29-07-2021 17:35:00 23.1 C 10.75 g/m*3 23.1 C 14.5 km/h
Sensor: Nr:Datum:Temp:Abs-Feuchte:Windchill:Wind:
Aussen-T/F 501 29-07-2021 17:40:00 23.4 C 10.93 g/m*3 23.4 C 17.7 km/h
502 29-07-2021 17:45:00 23.8 C 11.19 g/m*3 23.8 C 22.5 km/h
503 29-07-2021 17:50:00 23.8 C 10.97 g/m*3 23.8 C 9.7 km/h
504 29-07-2021 17:55:00 23.9 C 10.6 g/m*3 23.9 C 16.1 km/h
505 29-07-2021 18:00:00 24 C 10.88 g/m*3 24 C 16.1 km/h
506 29-07-2021 18:05:00 23.8 C 10.76 g/m*3 23.8 C 11.3 km/h
507 29-07-2021 18:10:00 23.7 C 10.91 g/m*3 23.7 C 12.9 km/h
508 29-07-2021 18:15:00 23.8 C 10.97 g/m*3 23.8 C 12.9 km/h
509 29-07-2021 18:20:00 23.9 C 11.9 g/m*3 23.9 C 12.9 km/h
510 29-07-2021 18:25:00 24.1 C 10.94 g/m*3 24.1 C 16.1 km/h
511 29-07-2021 18:30:00 23.9 C 11.47 g/m*3 23.9 C 17.7 km/h
512 29-07-2021 18:35:00 23.9 C 11.25 g/m*3 23.9 C 12.9 km/h
513 29-07-2021 18:40:00 23.6 C 11.27 g/m*3 23.6 C 6.4 km/h
514 29-07-2021 18:45:00 23.2 C 12.27 g/m*3 23.2 C 3.2 km/h
515 29-07-2021 18:50:00 22.9 C 12.67 g/m*3 22.9 C 1.6 km/h
516 29-07-2021 18:55:00 22.5 C 11.39 g/m*3 22.5 C 11.3 km/h
517 29-07-2021 19:00:00 22.1 C 11.32 g/m*3 22.1 C 6.4 km/h
518 29-07-2021 19:05:00 21.9 C 11.39 g/m*3 21.9 C 12.9 km/h
519 29-07-2021 19:10:00 22.2 C 11.58 g/m*3 22.2 C 6.4 km/h
520 29-07-2021 19:15:00 22.6 C 12.05 g/m*3 22.6 C 8.1 km/h
521 29-07-2021 19:20:00 22.7 C 12.12 g/m*3 22.7 C 6.4 km/h
522 29-07-2021 19:25:00 22.6 C 11.45 g/m*3 22.6 C 11.3 km/h
523 29-07-2021 19:30:00 22.5 C 10.99 g/m*3 22.5 C 11.3 km/h
524 29-07-2021 19:35:00 22.4 C 11.32 g/m*3 22.4 C 9.7 km/h
525 29-07-2021 19:40:00 22.3 C 10.66 g/m*3 22.3 C 14.5 km/h
Sensor: Nr:Datum:Temp:Abs-Feuchte:Windchill:Wind:
Aussen-T/F 526 29-07-2021 19:45:00 22.3 C 11.06 g/m*3 22.3 C 8.1 km/h
527 29-07-2021 19:50:00 22.1 C 11.91 g/m*3 22.1 C 6.4 km/h
528 29-07-2021 19:55:00 21.8 C 12.66 g/m*3 21.8 C 0 km/h
529 29-07-2021 20:00:00 21.6 C 12.9 g/m*3 21.6 C 3.2 km/h
530 29-07-2021 20:05:00 21.3 C 13.05 g/m*3 21.3 C 4.8 km/h
531 29-07-2021 20:10:00 21.1 C 12.53 g/m*3 21.1 C 4.8 km/h
532 29-07-2021 20:15:00 20.8 C 12.67 g/m*3 20.8 C 4.8 km/h
533 29-07-2021 20:20:00 20.4 C 12.03 g/m*3 20.4 C 6.4 km/h
534 29-07-2021 20:25:00 20.3 C 12.49 g/m*3 20.3 C 3.2 km/h
535 29-07-2021 20:30:00 20.1 C 12.52 g/m*3 20.1 C 0 km/h
536 29-07-2021 20:35:00 19.9 C 12.54 g/m*3 19.9 C 0 km/h
537 29-07-2021 20:40:00 19.7 C 12.4 g/m*3 19.7 C 4.8 km/h
538 29-07-2021 20:45:00 19.4 C 12.35 g/m*3 19.4 C 4.8 km/h
539 29-07-2021 20:50:00 19.1 C 12.46 g/m*3 19.1 C 4.8 km/h
540 29-07-2021 20:55:00 18.8 C 12.08 g/m*3 18.8 C 4.8 km/h
541 29-07-2021 21:00:00 18.6 C 12.26 g/m*3 18.6 C 4.8 km/h
542 29-07-2021 21:05:00 18.3 C 12.2 g/m*3 18.3 C 4.8 km/h
543 29-07-2021 21:10:00 18.1 C 12.21 g/m*3 18.1 C 4.8 km/h
544 29-07-2021 21:15:00 17.8 C 11.84 g/m*3 17.8 C 4.8 km/h
545 29-07-2021 21:20:00 17.7 C 12.07 g/m*3 17.7 C 4.8 km/h
546 29-07-2021 21:25:00 17.5 C 11.93 g/m*3 17.5 C 4.8 km/h
547 29-07-2021 21:30:00 17.3 C 11.79 g/m*3 17.3 C 4.8 km/h
548 29-07-2021 21:35:00 17.2 C 11.86 g/m*3 17.2 C 4.8 km/h
549 29-07-2021 21:40:00 17.1 C 11.94 g/m*3 17.1 C 0 km/h
550 29-07-2021 21:45:00 17 C 11.87 g/m*3 17 C 0 km/h
Sensor: Nr:Datum:Temp:Abs-Feuchte:Windchill:Wind:
Aussen-T/F 551 29-07-2021 21:50:00 16.8 C 11.72 g/m*3 16.8 C 0 km/h
552 29-07-2021 21:55:00 16.8 C 11.72 g/m*3 16.8 C 4.8 km/h
553 29-07-2021 22:00:00 16.6 C 11.58 g/m*3 16.6 C 3.2 km/h
554 29-07-2021 22:05:00 16.5 C 11.51 g/m*3 16.5 C 3.2 km/h
555 29-07-2021 22:10:00 16.4 C 11.58 g/m*3 16.4 C 1.6 km/h
556 29-07-2021 22:15:00 16.2 C 11.45 g/m*3 16.2 C 4.8 km/h
557 29-07-2021 22:20:00 16.1 C 11.38 g/m*3 16.1 C 4.8 km/h
558 29-07-2021 22:25:00 15.9 C 11.24 g/m*3 15.9 C 4.8 km/h
559 29-07-2021 22:30:00 15.8 C 11.31 g/m*3 15.8 C 4.8 km/h
560 29-07-2021 22:35:00 15.8 C 11.31 g/m*3 15.8 C 3.2 km/h
561 29-07-2021 22:40:00 15.7 C 11.37 g/m*3 15.7 C 0 km/h
562 29-07-2021 22:45:00 15.7 C 11.37 g/m*3 15.7 C 0 km/h
563 29-07-2021 22:50:00 15.6 C 11.3 g/m*3 15.6 C 0 km/h
564 29-07-2021 22:55:00 15.6 C 11.44 g/m*3 15.6 C 0 km/h
565 29-07-2021 23:00:00 15.5 C 11.5 g/m*3 15.5 C 0 km/h
566 29-07-2021 23:05:00 15.4 C 11.43 g/m*3 15.4 C 0 km/h
567 29-07-2021 23:10:00 15.3 C 11.36 g/m*3 15.3 C 0 km/h
568 29-07-2021 23:15:00 15.3 C 11.36 g/m*3 15.3 C 0 km/h
569 29-07-2021 23:20:00 15.2 C 11.42 g/m*3 15.2 C 0 km/h
570 29-07-2021 23:25:00 15.1 C 11.35 g/m*3 15.1 C 0 km/h
571 29-07-2021 23:30:00 15.1 C 11.35 g/m*3 15.1 C 0 km/h
572 29-07-2021 23:35:00 14.9 C 11.22 g/m*3 14.9 C 0 km/h
573 29-07-2021 23:40:00 14.9 C 11.22 g/m*3 14.9 C 0 km/h
574 29-07-2021 23:45:00 14.8 C 11.15 g/m*3 14.8 C 0 km/h
575 29-07-2021 23:50:00 14.8 C 11.15 g/m*3 14.8 C 0 km/h
Sensor: Nr:Datum:Temp:Abs-Feuchte:Windchill:Wind:
Aussen-T/F 576 29-07-2021 23:55:00 14.8 C 11.27 g/m*3 14.8 C 0 km/h
577 30-07-2021 00:00:00 14.7 C 11.21 g/m*3 14.7 C 0 km/h
578 30-07-2021 00:05:00 14.6 C 11.14 g/m*3 14.6 C 0 km/h
579 30-07-2021 00:10:00 14.6 C 11.14 g/m*3 14.6 C 0 km/h
580 30-07-2021 00:15:00 14.5 C 11.07 g/m*3 14.5 C 0 km/h
581 30-07-2021 00:20:00 14.4 C 11 g/m*3 14.4 C 0 km/h
582 30-07-2021 00:25:00 14.3 C 10.93 g/m*3 14.3 C 0 km/h
583 30-07-2021 00:30:00 14.3 C 10.93 g/m*3 14.3 C 0 km/h
584 30-07-2021 00:35:00 14.3 C 11.06 g/m*3 14.3 C 0 km/h
585 30-07-2021 00:40:00 14.3 C 11.06 g/m*3 14.3 C 0 km/h
586 30-07-2021 00:45:00 14.2 C 10.99 g/m*3 14.2 C 0 km/h
587 30-07-2021 00:50:00 14.2 C 10.99 g/m*3 14.2 C 0 km/h
588 30-07-2021 00:55:00 14.2 C 10.99 g/m*3 14.2 C 0 km/h
589 30-07-2021 01:00:00 14.1 C 10.92 g/m*3 14.1 C 0 km/h
590 30-07-2021 01:05:00 14.1 C 10.92 g/m*3 14.1 C 0 km/h
591 30-07-2021 01:10:00 14.1 C 10.92 g/m*3 14.1 C 8.1 km/h
592 30-07-2021 01:15:00 14.1 C 10.92 g/m*3 14.1 C 8.1 km/h
593 30-07-2021 01:20:00 14 C 10.86 g/m*3 14 C 0 km/h
594 30-07-2021 01:25:00 13.9 C 10.91 g/m*3 13.9 C 0 km/h
595 30-07-2021 01:30:00 13.9 C 10.79 g/m*3 13.9 C 0 km/h
596 30-07-2021 01:35:00 13.9 C 10.91 g/m*3 13.9 C 3.2 km/h
597 30-07-2021 01:40:00 13.8 C 10.84 g/m*3 13.8 C 0 km/h
598 30-07-2021 01:45:00 13.8 C 10.84 g/m*3 13.8 C 0 km/h
599 30-07-2021 01:50:00 13.8 C 10.84 g/m*3 13.8 C 0 km/h
600 30-07-2021 01:55:00 13.7 C 10.78 g/m*3 13.7 C 1.6 km/h
Sensor: Nr:Datum:Temp:Abs-Feuchte:Windchill:Wind:
Aussen-T/F 601 30-07-2021 02:00:00 13.7 C 10.78 g/m*3 13.7 C 0 km/h
602 30-07-2021 02:05:00 13.6 C 10.71 g/m*3 13.6 C 0 km/h
603 30-07-2021 02:10:00 13.6 C 10.71 g/m*3 13.6 C 0 km/h
604 30-07-2021 02:15:00 13.5 C 10.64 g/m*3 13.5 C 0 km/h
605 30-07-2021 02:20:00 13.4 C 10.58 g/m*3 13.4 C 0 km/h
606 30-07-2021 02:25:00 13.4 C 10.69 g/m*3 13.4 C 0 km/h
607 30-07-2021 02:30:00 13.3 C 10.63 g/m*3 13.3 C 0 km/h
608 30-07-2021 02:35:00 13.3 C 10.63 g/m*3 13.3 C 0 km/h
609 30-07-2021 02:40:00 13.3 C 10.63 g/m*3 13.3 C 0 km/h
610 30-07-2021 02:45:00 13.2 C 10.56 g/m*3 13.2 C 0 km/h
611 30-07-2021 02:50:00 13.2 C 10.56 g/m*3 13.2 C 0 km/h
612 30-07-2021 02:55:00 13.2 C 10.56 g/m*3 13.2 C 0 km/h
613 30-07-2021 03:00:00 13.1 C 10.5 g/m*3 13.1 C 0 km/h
614 30-07-2021 03:05:00 13.1 C 10.5 g/m*3 13.1 C 0 km/h
615 30-07-2021 03:10:00 13 C 10.43 g/m*3 13 C 0 km/h
616 30-07-2021 03:15:00 12.9 C 10.37 g/m*3 12.9 C 0 km/h
617 30-07-2021 03:20:00 12.9 C 10.48 g/m*3 12.9 C 0 km/h
618 30-07-2021 03:25:00 12.9 C 10.48 g/m*3 12.9 C 1.6 km/h
619 30-07-2021 03:30:00 12.9 C 10.48 g/m*3 12.9 C 1.6 km/h
620 30-07-2021 03:35:00 12.9 C 10.48 g/m*3 12.9 C 0 km/h
621 30-07-2021 03:40:00 12.8 C 10.42 g/m*3 12.8 C 0 km/h
622 30-07-2021 03:45:00 12.8 C 10.42 g/m*3 12.8 C 0 km/h
623 30-07-2021 03:50:00 12.7 C 10.35 g/m*3 12.7 C 0 km/h
624 30-07-2021 03:55:00 12.7 C 10.35 g/m*3 12.7 C 0 km/h
625 30-07-2021 04:00:00 12.6 C 10.29 g/m*3 12.6 C 0 km/h
Sensor: Nr:Datum:Temp:Abs-Feuchte:Windchill:Wind:
Aussen-T/F 626 30-07-2021 04:05:00 12.5 C 10.22 g/m*3 12.5 C 0 km/h
627 30-07-2021 04:10:00 12.4 C 10.16 g/m*3 12.4 C 0 km/h
628 30-07-2021 04:15:00 12.4 C 10.16 g/m*3 12.4 C 0 km/h
629 30-07-2021 04:20:00 12.3 C 10.1 g/m*3 12.3 C 0 km/h
630 30-07-2021 04:25:00 12.3 C 10.1 g/m*3 12.3 C 0 km/h
631 30-07-2021 04:30:00 12.2 C 10.04 g/m*3 12.2 C 0 km/h
632 30-07-2021 04:35:00 12.2 C 10.04 g/m*3 12.2 C 0 km/h
633 30-07-2021 04:40:00 12.1 C 9.97 g/m*3 12.1 C 0 km/h
634 30-07-2021 04:45:00 12.1 C 10.08 g/m*3 12.1 C 0 km/h
635 30-07-2021 04:50:00 12 C 10.02 g/m*3 12 C 0 km/h
636 30-07-2021 04:55:00 12 C 10.02 g/m*3 12 C 1.6 km/h
637 30-07-2021 05:00:00 11.9 C 9.96 g/m*3 11.9 C 0 km/h
638 30-07-2021 05:05:00 11.9 C 9.96 g/m*3 11.9 C 0 km/h
639 30-07-2021 05:10:00 11.8 C 9.89 g/m*3 11.8 C 0 km/h
640 30-07-2021 05:15:00 11.8 C 9.89 g/m*3 11.8 C 0 km/h
641 30-07-2021 05:20:00 11.8 C 9.89 g/m*3 11.8 C 0 km/h
642 30-07-2021 05:25:00 11.7 C 9.83 g/m*3 11.7 C 0 km/h
643 30-07-2021 05:30:00 11.7 C 9.83 g/m*3 11.7 C 0 km/h
644 30-07-2021 05:35:00 11.7 C 9.83 g/m*3 11.7 C 0 km/h
645 30-07-2021 05:40:00 11.7 C 9.83 g/m*3 11.7 C 0 km/h
646 30-07-2021 05:45:00 11.7 C 9.83 g/m*3 11.7 C 0 km/h
647 30-07-2021 05:50:00 11.6 C 9.77 g/m*3 11.6 C 0 km/h
648 30-07-2021 05:55:00 11.6 C 9.77 g/m*3 11.6 C 0 km/h
649 30-07-2021 06:00:00 11.6 C 9.77 g/m*3 11.6 C 0 km/h
650 30-07-2021 06:05:00 11.5 C 9.81 g/m*3 11.5 C 0 km/h
Sensor: Nr:Datum:Temp:Abs-Feuchte:Windchill:Wind:
Aussen-T/F 651 30-07-2021 06:10:00 11.5 C 9.81 g/m*3 11.5 C 0 km/h
652 30-07-2021 06:15:00 11.5 C 9.81 g/m*3 11.5 C 0 km/h
653 30-07-2021 06:20:00 11.5 C 9.81 g/m*3 11.5 C 0 km/h
654 30-07-2021 06:25:00 11.4 C 9.75 g/m*3 11.4 C 0 km/h
655 30-07-2021 06:30:00 11.5 C 9.81 g/m*3 11.5 C 0 km/h
656 30-07-2021 06:35:00 11.6 C 9.87 g/m*3 11.6 C 0 km/h
657 30-07-2021 06:40:00 11.7 C 9.94 g/m*3 11.7 C 0 km/h
658 30-07-2021 06:45:00 11.8 C 10 g/m*3 11.8 C 0 km/h
659 30-07-2021 06:50:00 11.8 C 10 g/m*3 11.8 C 0 km/h
660 30-07-2021 06:55:00 11.8 C 10 g/m*3 11.8 C 0 km/h
661 30-07-2021 07:00:00 11.8 C 10 g/m*3 11.8 C 0 km/h
662 30-07-2021 07:05:00 11.8 C 10 g/m*3 11.8 C 0 km/h
663 30-07-2021 07:10:00 11.8 C 10 g/m*3 11.8 C 0 km/h
664 30-07-2021 07:15:00 11.8 C 10 g/m*3 11.8 C 0 km/h
665 30-07-2021 07:20:00 11.8 C 10 g/m*3 11.8 C 0 km/h
666 30-07-2021 07:25:00 11.9 C 10.17 g/m*3 11.9 C 0 km/h
667 30-07-2021 07:30:00 11.9 C 10.17 g/m*3 11.9 C 0 km/h
668 30-07-2021 07:35:00 12 C 10.23 g/m*3 12 C 0 km/h
669 30-07-2021 07:40:00 12.1 C 10.29 g/m*3 12.1 C 0 km/h
670 30-07-2021 07:45:00 12.2 C 10.36 g/m*3 12.2 C 0 km/h
671 30-07-2021 07:50:00 12.3 C 10.42 g/m*3 12.3 C 0 km/h
672 30-07-2021 07:55:00 12.4 C 10.49 g/m*3 12.4 C 0 km/h
673 30-07-2021 08:00:00 12.5 C 10.55 g/m*3 12.5 C 0 km/h
674 30-07-2021 08:05:00 12.6 C 10.62 g/m*3 12.6 C 0 km/h
675 30-07-2021 08:10:00 12.7 C 10.69 g/m*3 12.7 C 0 km/h
Sensor: Nr:Datum:Temp:Abs-Feuchte:Windchill:Wind:
Aussen-T/F 676 30-07-2021 08:15:00 12.8 C 10.75 g/m*3 12.8 C 0 km/h
677 30-07-2021 08:20:00 13 C 10.89 g/m*3 13 C 0 km/h
678 30-07-2021 08:25:00 13.1 C 10.95 g/m*3 13.1 C 0 km/h
679 30-07-2021 08:30:00 13.2 C 11.02 g/m*3 13.2 C 0 km/h
680 30-07-2021 08:35:00 13.2 C 11.02 g/m*3 13.2 C 0 km/h
681 30-07-2021 08:40:00 13.2 C 11.02 g/m*3 13.2 C 0 km/h
682 30-07-2021 08:45:00 13.3 C 11.09 g/m*3 13.3 C 0 km/h
683 30-07-2021 08:50:00 13.3 C 11.09 g/m*3 13.3 C 0 km/h
684 30-07-2021 08:55:00 13.4 C 11.16 g/m*3 13.4 C 0 km/h
685 30-07-2021 09:00:00 13.4 C 11.16 g/m*3 13.4 C 0 km/h
686 30-07-2021 09:05:00 13.5 C 11.23 g/m*3 13.5 C 0 km/h
687 30-07-2021 09:10:00 13.7 C 11.37 g/m*3 13.7 C 0 km/h
688 30-07-2021 09:15:00 13.8 C 11.44 g/m*3 13.8 C 0 km/h
689 30-07-2021 09:20:00 13.9 C 11.51 g/m*3 13.9 C 0 km/h
690 30-07-2021 09:25:00 14 C 11.58 g/m*3 14 C 0 km/h
691 30-07-2021 09:30:00 14.2 C 11.72 g/m*3 14.2 C 0 km/h
692 30-07-2021 09:35:00 14.3 C 11.79 g/m*3 14.3 C 3.2 km/h
693 30-07-2021 09:40:00 14.4 C 11.87 g/m*3 14.4 C 0 km/h
694 30-07-2021 09:45:00 14.6 C 12.14 g/m*3 14.6 C 0 km/h
695 30-07-2021 09:50:00 14.7 C 12.09 g/m*3 14.7 C 0 km/h
696 30-07-2021 09:55:00 14.9 C 12.24 g/m*3 14.9 C 0 km/h
697 30-07-2021 10:00:00 15 C 12.31 g/m*3 15 C 0 km/h
698 30-07-2021 10:05:00 15.1 C 12.39 g/m*3 15.1 C 3.2 km/h
699 30-07-2021 10:10:00 15.2 C 12.46 g/m*3 15.2 C 1.6 km/h
700 30-07-2021 10:15:00 15.4 C 12.61 g/m*3 15.4 C 0 km/h
Sensor: Nr:Datum:Temp:Abs-Feuchte:Windchill:Wind:
Aussen-T/F 701 30-07-2021 10:20:00 15.5 C 12.69 g/m*3 15.5 C 12.9 km/h
702 30-07-2021 10:25:00 15.9 C 12.73 g/m*3 15.9 C 12.9 km/h
703 30-07-2021 10:30:00 16.4 C 12.7 g/m*3 16.4 C 8.1 km/h
704 30-07-2021 10:35:00 16.8 C 12.72 g/m*3 16.8 C 3.2 km/h
705 30-07-2021 10:40:00 17.2 C 12.89 g/m*3 17.2 C 6.4 km/h
706 30-07-2021 10:45:00 17.7 C 12.37 g/m*3 17.7 C 9.7 km/h
707 30-07-2021 10:50:00 18.5 C 12.34 g/m*3 18.5 C 12.9 km/h
708 30-07-2021 10:55:00 19.1 C 12.46 g/m*3 19.1 C 11.3 km/h
709 30-07-2021 11:00:00 19.4 C 12.35 g/m*3 19.4 C 8.1 km/h
710 30-07-2021 11:05:00 19.8 C 12.47 g/m*3 19.8 C 19.3 km/h
711 30-07-2021 11:10:00 20.1 C 12.34 g/m*3 20.1 C 12.9 km/h
712 30-07-2021 11:15:00 20.3 C 12.31 g/m*3 20.3 C 14.5 km/h
713 30-07-2021 11:20:00 20.6 C 12.17 g/m*3 20.6 C 9.7 km/h
714 30-07-2021 11:25:00 20.7 C 12.24 g/m*3 20.7 C 6.4 km/h
715 30-07-2021 11:30:00 20.8 C 12.67 g/m*3 20.8 C 16.1 km/h
716 30-07-2021 11:35:00 20.8 C 12.31 g/m*3 20.8 C 12.9 km/h
717 30-07-2021 11:40:00 20.9 C 11.84 g/m*3 20.9 C 14.5 km/h
718 30-07-2021 11:45:00 21.1 C 11.79 g/m*3 21.1 C 16.1 km/h
719 30-07-2021 11:50:00 21.1 C 11.79 g/m*3 21.1 C 14.5 km/h
720 30-07-2021 11:55:00 21.2 C 11.86 g/m*3 21.2 C 12.9 km/h
721 30-07-2021 12:00:00 21.4 C 12 g/m*3 21.4 C 12.9 km/h
722 30-07-2021 12:05:00 21.5 C 12.07 g/m*3 21.5 C 14.5 km/h
723 30-07-2021 12:10:00 21.6 C 12.33 g/m*3 21.6 C 14.5 km/h
724 30-07-2021 12:15:00 21.6 C 12.33 g/m*3 21.6 C 11.3 km/h
725 30-07-2021 12:20:00 21.7 C 12.21 g/m*3 21.7 C 11.3 km/h
Sensor: Nr:Datum:Temp:Abs-Feuchte:Windchill:Wind:
Aussen-T/F 726 30-07-2021 12:25:00 21.8 C 12.09 g/m*3 21.8 C 14.5 km/h
727 30-07-2021 12:30:00 21.9 C 12.16 g/m*3 21.9 C 14.5 km/h
728 30-07-2021 12:35:00 22.1 C 12.49 g/m*3 22.1 C 12.9 km/h
729 30-07-2021 12:40:00 22.1 C 12.49 g/m*3 22.1 C 12.9 km/h
730 30-07-2021 12:45:00 22.2 C 12.57 g/m*3 22.2 C 12.9 km/h
731 30-07-2021 12:50:00 22.2 C 12.57 g/m*3 22.2 C 14.5 km/h
732 30-07-2021 12:55:00 22.2 C 12.37 g/m*3 22.2 C 11.3 km/h
733 30-07-2021 13:00:00 22.3 C 12.64 g/m*3 22.3 C 12.9 km/h
734 30-07-2021 13:05:00 22.4 C 12.51 g/m*3 22.4 C 11.3 km/h
735 30-07-2021 13:10:00 22.5 C 12.38 g/m*3 22.5 C 14.5 km/h
736 30-07-2021 13:15:00 22.7 C 12.32 g/m*3 22.7 C 14.5 km/h
737 30-07-2021 13:20:00 22.8 C 12.6 g/m*3 22.8 C 16.1 km/h
738 30-07-2021 13:25:00 23 C 12.95 g/m*3 23 C 12.9 km/h
739 30-07-2021 13:30:00 23.2 C 12.89 g/m*3 23.2 C 11.3 km/h
740 30-07-2021 13:35:00 23.2 C 12.68 g/m*3 23.2 C 17.7 km/h
741 30-07-2021 13:40:00 23.2 C 12.68 g/m*3 23.2 C 11.3 km/h
742 30-07-2021 13:45:00 23.2 C 12.47 g/m*3 23.2 C 11.3 km/h
743 30-07-2021 13:50:00 23.2 C 12.68 g/m*3 23.2 C 11.3 km/h
744 30-07-2021 13:55:00 23.3 C 12.34 g/m*3 23.3 C 24.1 km/h
745 30-07-2021 14:00:00 23.4 C 12.83 g/m*3 23.4 C 24.1 km/h
746 30-07-2021 14:05:00 23.4 C 12.41 g/m*3 23.4 C 14.5 km/h
747 30-07-2021 14:10:00 23.4 C 12.62 g/m*3 23.4 C 14.5 km/h
748 30-07-2021 14:15:00 23.5 C 12.69 g/m*3 23.5 C 14.5 km/h
749 30-07-2021 14:20:00 23.6 C 12.76 g/m*3 23.6 C 9.7 km/h
750 30-07-2021 14:25:00 23.7 C 13.26 g/m*3 23.7 C 8.1 km/h
Sensor: Nr:Datum:Temp:Abs-Feuchte:Windchill:Wind:
Aussen-T/F 751 30-07-2021 14:30:00 23.8 C 12.69 g/m*3 23.8 C 9.7 km/h
752 30-07-2021 14:35:00 23.8 C 12.48 g/m*3 23.8 C 11.3 km/h
753 30-07-2021 14:40:00 23.8 C 12.48 g/m*3 23.8 C 12.9 km/h
754 30-07-2021 14:45:00 23.8 C 12.26 g/m*3 23.8 C 12.9 km/h
755 30-07-2021 14:50:00 23.9 C 12.98 g/m*3 23.9 C 11.3 km/h
756 30-07-2021 14:55:00 24.2 C 12.32 g/m*3 24.2 C 14.5 km/h
757 30-07-2021 15:00:00 24.5 C 13.43 g/m*3 24.5 C 14.5 km/h
758 30-07-2021 15:05:00 24.8 C 12.75 g/m*3 24.8 C 11.3 km/h
759 30-07-2021 15:10:00 25 C 12.89 g/m*3 25 C 11.3 km/h
760 30-07-2021 15:15:00 25.2 C 13.04 g/m*3 25.2 C 14.5 km/h
761 30-07-2021 15:20:00 25.4 C 13.42 g/m*3 25.4 C 11.3 km/h
762 30-07-2021 15:25:00 25.7 C 12.69 g/m*3 25.7 C 16.1 km/h
763 30-07-2021 15:30:00 25.8 C 13 g/m*3 25.8 C 16.1 km/h
764 30-07-2021 15:35:00 25.9 C 13.07 g/m*3 25.9 C 14.5 km/h
765 30-07-2021 15:40:00 26.1 C 12.73 g/m*3 26.1 C 19.3 km/h
766 30-07-2021 15:45:00 26 C 12.66 g/m*3 26 C 12.9 km/h
767 30-07-2021 15:50:00 26 C 13.15 g/m*3 26 C 12.9 km/h
768 30-07-2021 15:55:00 26.3 C 12.87 g/m*3 26.3 C 8.1 km/h
769 30-07-2021 16:00:00 26.6 C 12.84 g/m*3 26.6 C 11.3 km/h
770 30-07-2021 16:05:00 26.5 C 13.27 g/m*3 26.5 C 16.1 km/h
771 30-07-2021 16:10:00 26.5 C 13.02 g/m*3 26.5 C 12.9 km/h
772 30-07-2021 16:15:00 26.8 C 12.73 g/m*3 26.8 C 17.7 km/h
773 30-07-2021 16:20:00 26.9 C 12.54 g/m*3 26.9 C 17.7 km/h
774 30-07-2021 16:25:00 27 C 12.87 g/m*3 27 C 11.3 km/h
775 30-07-2021 16:30:00 27.1 C 13.46 g/m*3 27.1 C 8.1 km/h
Sensor: Nr:Datum:Temp:Abs-Feuchte:Windchill:Wind:
Aussen-T/F 776 30-07-2021 16:35:00 27.1 C 12.94 g/m*3 27.1 C 17.7 km/h
777 30-07-2021 16:40:00 27.1 C 12.68 g/m*3 27.1 C 11.3 km/h
778 30-07-2021 16:45:00 26.7 C 13.16 g/m*3 26.7 C 16.1 km/h
779 30-07-2021 16:50:00 26.4 C 12.45 g/m*3 26.4 C 9.7 km/h
780 30-07-2021 16:55:00 26.4 C 13.69 g/m*3 26.4 C 8.1 km/h
781 30-07-2021 17:00:00 27 C 12.87 g/m*3 27 C 14.5 km/h
782 30-07-2021 17:05:00 27.4 C 12.63 g/m*3 27.4 C 14.5 km/h
783 30-07-2021 17:10:00 27.7 C 12.84 g/m*3 27.7 C 14.5 km/h
784 30-07-2021 17:15:00 27.9 C 12.71 g/m*3 27.9 C 11.3 km/h
785 30-07-2021 17:20:00 27.6 C 13.3 g/m*3 27.6 C 9.7 km/h
786 30-07-2021 17:25:00 27.8 C 12.64 g/m*3 27.8 C 8.1 km/h
787 30-07-2021 17:30:00 27.8 C 12.1 g/m*3 27.8 C 16.1 km/h
788 30-07-2021 17:35:00 27.7 C 12.04 g/m*3 27.7 C 12.9 km/h
789 30-07-2021 17:40:00 27.8 C 12.37 g/m*3 27.8 C 11.3 km/h
790 30-07-2021 17:45:00 27.9 C 12.71 g/m*3 27.9 C 12.9 km/h
791 30-07-2021 17:50:00 28.1 C 12.3 g/m*3 28.1 C 16.1 km/h
792 30-07-2021 17:55:00 27.6 C 12.5 g/m*3 27.6 C 12.9 km/h
793 30-07-2021 18:00:00 27.6 C 12.5 g/m*3 27.6 C 11.3 km/h
794 30-07-2021 18:05:00 27.6 C 12.5 g/m*3 27.6 C 14.5 km/h
795 30-07-2021 18:10:00 27.2 C 11.71 g/m*3 27.2 C 16.1 km/h
796 30-07-2021 18:15:00 26.6 C 12.84 g/m*3 26.6 C 16.1 km/h
797 30-07-2021 18:20:00 26.2 C 12.56 g/m*3 26.2 C 11.3 km/h
798 30-07-2021 18:25:00 26.5 C 12.27 g/m*3 26.5 C 9.7 km/h
799 30-07-2021 18:30:00 27.1 C 12.42 g/m*3 27.1 C 16.1 km/h
800 30-07-2021 18:35:00 27.2 C 13.01 g/m*3 27.2 C 14.5 km/h
Sensor: Nr:Datum:Temp:Abs-Feuchte:Windchill:Wind:
Aussen-T/F 801 30-07-2021 18:40:00 27.1 C 12.42 g/m*3 27.1 C 16.1 km/h
802 30-07-2021 18:45:00 26.9 C 12.54 g/m*3 26.9 C 9.7 km/h
803 30-07-2021 18:50:00 26.6 C 12.33 g/m*3 26.6 C 16.1 km/h
804 30-07-2021 18:55:00 25.8 C 12.28 g/m*3 25.8 C 12.9 km/h
805 30-07-2021 19:00:00 25.6 C 12.62 g/m*3 25.6 C 9.7 km/h
806 30-07-2021 19:05:00 25.4 C 13.18 g/m*3 25.4 C 11.3 km/h
807 30-07-2021 19:10:00 25.4 C 12.95 g/m*3 25.4 C 8.1 km/h
808 30-07-2021 19:15:00 25.5 C 13.49 g/m*3 25.5 C 8.1 km/h
809 30-07-2021 19:20:00 25.4 C 13.65 g/m*3 25.4 C 6.4 km/h
810 30-07-2021 19:25:00 25.2 C 12.57 g/m*3 25.2 C 12.9 km/h
811 30-07-2021 19:30:00 24.9 C 12.82 g/m*3 24.9 C 8.1 km/h
812 30-07-2021 19:35:00 24.7 C 14.03 g/m*3 24.7 C 8.1 km/h
813 30-07-2021 19:40:00 24.3 C 12.61 g/m*3 24.3 C 4.8 km/h
814 30-07-2021 19:45:00 24 C 13.27 g/m*3 24 C 6.4 km/h
815 30-07-2021 19:50:00 23.8 C 13.34 g/m*3 23.8 C 0 km/h
816 30-07-2021 19:55:00 23.5 C 12.9 g/m*3 23.5 C 6.4 km/h
817 30-07-2021 20:00:00 23.3 C 13.17 g/m*3 23.3 C 4.8 km/h
818 30-07-2021 20:05:00 23.2 C 13.1 g/m*3 23.2 C 0 km/h
819 30-07-2021 20:10:00 23.2 C 12.68 g/m*3 23.2 C 9.7 km/h
820 30-07-2021 20:15:00 23.3 C 12.75 g/m*3 23.3 C 11.3 km/h
821 30-07-2021 20:20:00 23.3 C 12.96 g/m*3 23.3 C 9.7 km/h
822 30-07-2021 20:25:00 23.2 C 13.1 g/m*3 23.2 C 3.2 km/h
823 30-07-2021 20:30:00 23.1 C 12.82 g/m*3 23.1 C 4.8 km/h
824 30-07-2021 20:35:00 22.9 C 13.08 g/m*3 22.9 C 9.7 km/h
825 30-07-2021 20:40:00 22.7 C 12.73 g/m*3 22.7 C 4.8 km/h
Sensor: Nr:Datum:Temp:Abs-Feuchte:Windchill:Wind:
Aussen-T/F 826 30-07-2021 20:45:00 22.6 C 12.86 g/m*3 22.6 C 9.7 km/h
827 30-07-2021 20:50:00 22.4 C 12.71 g/m*3 22.4 C 9.7 km/h
828 30-07-2021 20:55:00 22.3 C 12.83 g/m*3 22.3 C 3.2 km/h
829 30-07-2021 21:00:00 22.2 C 12.96 g/m*3 22.2 C 4.8 km/h
830 30-07-2021 21:05:00 21.9 C 12.74 g/m*3 21.9 C 11.3 km/h
831 30-07-2021 21:10:00 21.7 C 12.59 g/m*3 21.7 C 11.3 km/h
832 30-07-2021 21:15:00 21.6 C 12.9 g/m*3 21.6 C 1.6 km/h
833 30-07-2021 21:20:00 21.3 C 12.49 g/m*3 21.3 C 4.8 km/h
834 30-07-2021 21:25:00 21.2 C 12.79 g/m*3 21.2 C 4.8 km/h
835 30-07-2021 21:30:00 20.9 C 12.57 g/m*3 20.9 C 1.6 km/h
836 30-07-2021 21:35:00 20.8 C 13.04 g/m*3 20.8 C 1.6 km/h
837 30-07-2021 21:40:00 20.5 C 12.81 g/m*3 20.5 C 4.8 km/h
838 30-07-2021 21:45:00 20.2 C 12.76 g/m*3 20.2 C 4.8 km/h
839 30-07-2021 21:50:00 20 C 12.96 g/m*3 20 C 3.2 km/h
840 30-07-2021 21:55:00 19.7 C 12.74 g/m*3 19.7 C 0 km/h
841 30-07-2021 22:00:00 19.5 C 12.75 g/m*3 19.5 C 4.8 km/h
842 30-07-2021 22:05:00 19.3 C 12.77 g/m*3 19.3 C 3.2 km/h
843 30-07-2021 22:10:00 19.2 C 12.7 g/m*3 19.2 C 0 km/h
844 30-07-2021 22:15:00 19.2 C 12.86 g/m*3 19.2 C 0 km/h
845 30-07-2021 22:20:00 19.1 C 12.95 g/m*3 19.1 C 0 km/h
846 30-07-2021 22:25:00 19.1 C 12.62 g/m*3 19.1 C 4.8 km/h
847 30-07-2021 22:30:00 19.1 C 12.29 g/m*3 19.1 C 11.3 km/h
848 30-07-2021 22:35:00 19.3 C 12.27 g/m*3 19.3 C 9.7 km/h
849 30-07-2021 22:40:00 19.7 C 12.23 g/m*3 19.7 C 11.3 km/h
850 30-07-2021 22:45:00 19.8 C 11.96 g/m*3 19.8 C 14.5 km/h
Sensor: Nr:Datum:Temp:Abs-Feuchte:Windchill:Wind:
Aussen-T/F 851 30-07-2021 22:50:00 20.1 C 12.34 g/m*3 20.1 C 11.3 km/h
852 30-07-2021 22:55:00 20.1 C 12.34 g/m*3 20.1 C 9.7 km/h
853 30-07-2021 23:00:00 19.9 C 12.54 g/m*3 19.9 C 4.8 km/h
854 30-07-2021 23:05:00 19.6 C 11.65 g/m*3 19.6 C 11.3 km/h
855 30-07-2021 23:10:00 19.4 C 11.01 g/m*3 19.4 C 8.1 km/h
856 30-07-2021 23:15:00 19.4 C 11.01 g/m*3 19.4 C 11.3 km/h
857 30-07-2021 23:20:00 19.4 C 11.35 g/m*3 19.4 C 6.4 km/h
858 30-07-2021 23:25:00 19.3 C 11.28 g/m*3 19.3 C 6.4 km/h
859 30-07-2021 23:30:00 19.2 C 11.38 g/m*3 19.2 C 4.8 km/h
860 30-07-2021 23:35:00 19 C 11.41 g/m*3 19 C 3.2 km/h
861 30-07-2021 23:40:00 18.8 C 10.95 g/m*3 18.8 C 8.1 km/h
862 30-07-2021 23:45:00 18.6 C 10.82 g/m*3 18.6 C 11.3 km/h
863 30-07-2021 23:50:00 18.4 C 11.01 g/m*3 18.4 C 4.8 km/h
864 30-07-2021 23:55:00 18.3 C 10.79 g/m*3 18.3 C 4.8 km/h
865 31-07-2021 00:00:00 18.2 C 10.88 g/m*3 18.2 C 3.2 km/h
866 31-07-2021 00:05:00 17.9 C 10.99 g/m*3 17.9 C 3.2 km/h
867 31-07-2021 00:10:00 17.8 C 11.08 g/m*3 17.8 C 3.2 km/h
868 31-07-2021 00:15:00 17.6 C 11.1 g/m*3 17.6 C 1.6 km/h
869 31-07-2021 00:20:00 17.4 C 10.97 g/m*3 17.4 C 0 km/h
870 31-07-2021 00:25:00 17.2 C 11.28 g/m*3 17.2 C 1.6 km/h
871 31-07-2021 00:30:00 17 C 11.29 g/m*3 17 C 0 km/h
872 31-07-2021 00:35:00 16.8 C 11.15 g/m*3 16.8 C 0 km/h
873 31-07-2021 00:40:00 16.7 C 11.23 g/m*3 16.7 C 0 km/h
874 31-07-2021 00:45:00 16.6 C 11.16 g/m*3 16.6 C 0 km/h
875 31-07-2021 00:50:00 16.4 C 11.17 g/m*3 16.4 C 0 km/h
Sensor: Nr:Datum:Temp:Abs-Feuchte:Windchill:Wind:
Aussen-T/F 876 31-07-2021 00:55:00 16.4 C 11.31 g/m*3 16.4 C 0 km/h
877 31-07-2021 01:00:00 16.3 C 11.1 g/m*3 16.3 C 0 km/h
878 31-07-2021 01:05:00 16.2 C 11.03 g/m*3 16.2 C 0 km/h
879 31-07-2021 01:10:00 16.1 C 10.97 g/m*3 16.1 C 0 km/h
880 31-07-2021 01:15:00 16.1 C 11.24 g/m*3 16.1 C 0 km/h
881 31-07-2021 01:20:00 16 C 11.17 g/m*3 16 C 0 km/h
882 31-07-2021 01:25:00 16 C 11.17 g/m*3 16 C 0 km/h
883 31-07-2021 01:30:00 15.9 C 11.1 g/m*3 15.9 C 0 km/h
884 31-07-2021 01:35:00 15.9 C 11.1 g/m*3 15.9 C 0 km/h
885 31-07-2021 01:40:00 16 C 11.31 g/m*3 16 C 0 km/h
886 31-07-2021 01:45:00 16 C 11.31 g/m*3 16 C 0 km/h
887 31-07-2021 01:50:00 16.1 C 11.51 g/m*3 16.1 C 0 km/h
888 31-07-2021 01:55:00 16.1 C 11.51 g/m*3 16.1 C 0 km/h
889 31-07-2021 02:00:00 16.1 C 11.1 g/m*3 16.1 C 4.8 km/h
890 31-07-2021 02:05:00 16.1 C 11.1 g/m*3 16.1 C 1.6 km/h
891 31-07-2021 02:10:00 16.1 C 10.83 g/m*3 16.1 C 4.8 km/h
892 31-07-2021 02:15:00 16.2 C 11.03 g/m*3 16.2 C 0 km/h
893 31-07-2021 02:20:00 16.2 C 10.89 g/m*3 16.2 C 0 km/h
894 31-07-2021 02:25:00 16.2 C 10.89 g/m*3 16.2 C 3.2 km/h
895 31-07-2021 02:30:00 16.2 C 10.76 g/m*3 16.2 C 9.7 km/h
896 31-07-2021 02:35:00 16.2 C 10.62 g/m*3 16.2 C 9.7 km/h
897 31-07-2021 02:40:00 16.4 C 10.47 g/m*3 16.4 C 11.3 km/h
898 31-07-2021 02:45:00 16.7 C 10.37 g/m*3 16.7 C 14.5 km/h
899 31-07-2021 02:50:00 17.2 C 10.69 g/m*3 17.2 C 17.7 km/h
900 31-07-2021 02:55:00 17.3 C 10.61 g/m*3 17.3 C 8.1 km/h
Sensor: Nr:Datum:Temp:Abs-Feuchte:Windchill:Wind:
Aussen-T/F 901 31-07-2021 03:00:00 17.3 C 10.61 g/m*3 17.3 C 9.7 km/h
902 31-07-2021 03:05:00 17.4 C 10.52 g/m*3 17.4 C 9.7 km/h
903 31-07-2021 03:10:00 17.4 C 10.23 g/m*3 17.4 C 11.3 km/h
904 31-07-2021 03:15:00 17.5 C 10.29 g/m*3 17.5 C 14.5 km/h
905 31-07-2021 03:20:00 17.6 C 10.35 g/m*3 17.6 C 14.5 km/h
906 31-07-2021 03:25:00 17.5 C 10.44 g/m*3 17.5 C 4.8 km/h
907 31-07-2021 03:30:00 17.4 C 10.37 g/m*3 17.4 C 6.4 km/h
908 31-07-2021 03:35:00 17.3 C 10.46 g/m*3 17.3 C 8.1 km/h
909 31-07-2021 03:40:00 17.2 C 10.54 g/m*3 17.2 C 4.8 km/h
910 31-07-2021 03:45:00 17 C 10.27 g/m*3 17 C 9.7 km/h
911 31-07-2021 03:50:00 16.9 C 10.36 g/m*3 16.9 C 9.7 km/h
912 31-07-2021 03:55:00 16.8 C 10.44 g/m*3 16.8 C 6.4 km/h
913 31-07-2021 04:00:00 16.7 C 10.37 g/m*3 16.7 C 6.4 km/h
914 31-07-2021 04:05:00 16.7 C 10.52 g/m*3 16.7 C 1.6 km/h
915 31-07-2021 04:10:00 16.6 C 10.45 g/m*3 16.6 C 6.4 km/h
916 31-07-2021 04:15:00 16.4 C 10.33 g/m*3 16.4 C 9.7 km/h
917 31-07-2021 04:20:00 16.3 C 10.27 g/m*3 16.3 C 11.3 km/h
918 31-07-2021 04:25:00 16.3 C 10.27 g/m*3 16.3 C 12.9 km/h
919 31-07-2021 04:30:00 16.4 C 10.19 g/m*3 16.4 C 11.3 km/h
920 31-07-2021 04:35:00 16.4 C 10.19 g/m*3 16.4 C 9.7 km/h
921 31-07-2021 04:40:00 16.4 C 10.19 g/m*3 16.4 C 11.3 km/h
922 31-07-2021 04:45:00 16.4 C 10.19 g/m*3 16.4 C 19.3 km/h
923 31-07-2021 04:50:00 16.3 C 10.13 g/m*3 16.3 C 9.7 km/h
924 31-07-2021 04:55:00 16.3 C 10.13 g/m*3 16.3 C 6.4 km/h
925 31-07-2021 05:00:00 16.3 C 10.13 g/m*3 16.3 C 6.4 km/h
Sensor: Nr:Datum:Temp:Abs-Feuchte:Windchill:Wind:
Aussen-T/F 926 31-07-2021 05:05:00 16.2 C 10.2 g/m*3 16.2 C 3.2 km/h
927 31-07-2021 05:10:00 16.1 C 10.28 g/m*3 16.1 C 6.4 km/h
928 31-07-2021 05:15:00 15.9 C 10.16 g/m*3 15.9 C 6.4 km/h
929 31-07-2021 05:20:00 15.8 C 10.23 g/m*3 15.8 C 4.8 km/h
930 31-07-2021 05:25:00 15.8 C 10.23 g/m*3 15.8 C 0 km/h
931 31-07-2021 05:30:00 15.6 C 10.24 g/m*3 15.6 C 3.2 km/h
932 31-07-2021 05:35:00 15.4 C 10.25 g/m*3 15.4 C 3.2 km/h
933 31-07-2021 05:40:00 15.3 C 10.19 g/m*3 15.3 C 3.2 km/h
934 31-07-2021 05:45:00 15.1 C 10.19 g/m*3 15.1 C 1.6 km/h
935 31-07-2021 05:50:00 14.9 C 10.2 g/m*3 14.9 C 3.2 km/h
936 31-07-2021 05:55:00 14.8 C 10.13 g/m*3 14.8 C 8.1 km/h
937 31-07-2021 06:00:00 14.7 C 10.07 g/m*3 14.7 C 9.7 km/h
938 31-07-2021 06:05:00 14.9 C 10.2 g/m*3 14.9 C 16.1 km/h
939 31-07-2021 06:10:00 15.1 C 10.19 g/m*3 15.1 C 8.1 km/h
940 31-07-2021 06:15:00 15.2 C 10.25 g/m*3 15.2 C 6.4 km/h
941 31-07-2021 06:20:00 15.3 C 10.32 g/m*3 15.3 C 9.7 km/h
942 31-07-2021 06:25:00 15.3 C 10.32 g/m*3 15.3 C 6.4 km/h
943 31-07-2021 06:30:00 15.4 C 10.25 g/m*3 15.4 C 9.7 km/h
944 31-07-2021 06:35:00 15.4 C 10.25 g/m*3 15.4 C 12.9 km/h
945 31-07-2021 06:40:00 15.5 C 10.31 g/m*3 15.5 C 9.7 km/h
946 31-07-2021 06:45:00 15.5 C 10.44 g/m*3 15.5 C 4.8 km/h
947 31-07-2021 06:50:00 15.4 C 10.38 g/m*3 15.4 C 11.3 km/h
948 31-07-2021 06:55:00 15.4 C 10.51 g/m*3 15.4 C 0 km/h
949 31-07-2021 07:00:00 15.3 C 10.45 g/m*3 15.3 C 9.7 km/h
950 31-07-2021 07:05:00 15.3 C 10.45 g/m*3 15.3 C 6.4 km/h
Sensor: Nr:Datum:Temp:Abs-Feuchte:Windchill:Wind:
Aussen-T/F 951 31-07-2021 07:10:00 15.3 C 10.45 g/m*3 15.3 C 11.3 km/h
952 31-07-2021 07:15:00 15.3 C 10.45 g/m*3 15.3 C 9.7 km/h
953 31-07-2021 07:20:00 15.3 C 10.45 g/m*3 15.3 C 6.4 km/h
954 31-07-2021 07:25:00 15.3 C 10.45 g/m*3 15.3 C 11.3 km/h
955 31-07-2021 07:30:00 15.4 C 10.38 g/m*3 15.4 C 11.3 km/h
956 31-07-2021 07:35:00 15.5 C 10.44 g/m*3 15.5 C 14.5 km/h
957 31-07-2021 07:40:00 15.6 C 10.51 g/m*3 15.6 C 8.1 km/h
958 31-07-2021 07:45:00 15.6 C 10.37 g/m*3 15.6 C 16.1 km/h
959 31-07-2021 07:50:00 15.7 C 10.44 g/m*3 15.7 C 12.9 km/h
960 31-07-2021 07:55:00 15.8 C 10.5 g/m*3 15.8 C 19.3 km/h
961 31-07-2021 08:00:00 15.8 C 10.5 g/m*3 15.8 C 16.1 km/h
962 31-07-2021 08:05:00 15.8 C 10.36 g/m*3 15.8 C 20.9 km/h
963 31-07-2021 08:10:00 15.8 C 10.5 g/m*3 15.8 C 20.9 km/h
964 31-07-2021 08:15:00 15.8 C 10.5 g/m*3 15.8 C 17.7 km/h
965 31-07-2021 08:20:00 15.8 C 10.5 g/m*3 15.8 C 12.9 km/h
966 31-07-2021 08:25:00 15.8 C 10.5 g/m*3 15.8 C 12.9 km/h
967 31-07-2021 08:30:00 16 C 10.63 g/m*3 16 C 20.9 km/h
968 31-07-2021 08:35:00 16.2 C 10.62 g/m*3 16.2 C 19.3 km/h
969 31-07-2021 08:40:00 16.3 C 10.54 g/m*3 16.3 C 22.5 km/h
970 31-07-2021 08:45:00 16.3 C 10.54 g/m*3 16.3 C 17.7 km/h
971 31-07-2021 08:50:00 16.4 C 10.61 g/m*3 16.4 C 24.1 km/h
972 31-07-2021 08:55:00 16.6 C 10.74 g/m*3 16.6 C 16.1 km/h
973 31-07-2021 09:00:00 16.5 C 10.67 g/m*3 16.5 C 19.3 km/h
974 31-07-2021 09:05:00 16.4 C 10.61 g/m*3 16.4 C 22.5 km/h
975 31-07-2021 09:10:00 16.4 C 10.61 g/m*3 16.4 C 14.5 km/h
Sensor: Nr:Datum:Temp:Abs-Feuchte:Windchill:Wind:
Aussen-T/F 976 31-07-2021 09:15:00 16.4 C 10.61 g/m*3 16.4 C 16.1 km/h
977 31-07-2021 09:20:00 16.4 C 10.61 g/m*3 16.4 C 14.5 km/h
978 31-07-2021 09:25:00 16.5 C 10.67 g/m*3 16.5 C 20.9 km/h
979 31-07-2021 09:30:00 16.6 C 10.74 g/m*3 16.6 C 17.7 km/h
980 31-07-2021 09:35:00 16.7 C 10.66 g/m*3 16.7 C 20.9 km/h
981 31-07-2021 09:40:00 16.7 C 10.66 g/m*3 16.7 C 16.1 km/h
982 31-07-2021 09:45:00 16.8 C 10.87 g/m*3 16.8 C 19.3 km/h
983 31-07-2021 09:50:00 16.8 C 10.72 g/m*3 16.8 C 16.1 km/h
984 31-07-2021 09:55:00 16.9 C 10.79 g/m*3 16.9 C 17.7 km/h
985 31-07-2021 10:00:00 17.1 C 10.92 g/m*3 17.1 C 12.9 km/h
986 31-07-2021 10:05:00 17.2 C 10.98 g/m*3 17.2 C 14.5 km/h
987 31-07-2021 10:10:00 17.3 C 11.05 g/m*3 17.3 C 14.5 km/h
988 31-07-2021 10:15:00 17.4 C 11.12 g/m*3 17.4 C 17.7 km/h
989 31-07-2021 10:20:00 17.5 C 11.03 g/m*3 17.5 C 14.5 km/h
990 31-07-2021 10:25:00 17.6 C 10.95 g/m*3 17.6 C 17.7 km/h
991 31-07-2021 10:30:00 17.8 C 11.08 g/m*3 17.8 C 20.9 km/h
992 31-07-2021 10:35:00 17.9 C 10.84 g/m*3 17.9 C 14.5 km/h
993 31-07-2021 10:40:00 18.1 C 11.12 g/m*3 18.1 C 12.9 km/h
994 31-07-2021 10:45:00 18.3 C 11.26 g/m*3 18.3 C 14.5 km/h
995 31-07-2021 10:50:00 18.5 C 11.23 g/m*3 18.5 C 16.1 km/h
996 31-07-2021 10:55:00 18.7 C 11.21 g/m*3 18.7 C 22.5 km/h
997 31-07-2021 11:00:00 18.8 C 11.11 g/m*3 18.8 C 16.1 km/h
998 31-07-2021 11:05:00 18.8 C 11.11 g/m*3 18.8 C 17.7 km/h
999 31-07-2021 11:10:00 18.9 C 11.34 g/m*3 18.9 C 19.3 km/h
1000 31-07-2021 11:15:00 19 C 11.24 g/m*3 19 C 14.5 km/h
Sensor: Nr:Datum:Temp:Abs-Feuchte:Windchill:Wind:
Aussen-T/F 1001 31-07-2021 11:20:00 19.1 C 11.47 g/m*3 19.1 C 17.7 km/h
1002 31-07-2021 11:25:00 19 C 11.24 g/m*3 19 C 19.3 km/h
1003 31-07-2021 11:30:00 19.1 C 11.47 g/m*3 19.1 C 14.5 km/h
1004 31-07-2021 11:35:00 19.1 C 11.31 g/m*3 19.1 C 17.7 km/h
1005 31-07-2021 11:40:00 19.1 C 11.15 g/m*3 19.1 C 19.3 km/h
1006 31-07-2021 11:45:00 19.3 C 11.11 g/m*3 19.3 C 20.9 km/h
1007 31-07-2021 11:50:00 19.4 C 11.18 g/m*3 19.4 C 16.1 km/h
1008 31-07-2021 11:55:00 19.5 C 11.24 g/m*3 19.5 C 19.3 km/h
1009 31-07-2021 12:00:00 19.7 C 11.38 g/m*3 19.7 C 14.5 km/h
1010 31-07-2021 12:05:00 19.8 C 11.27 g/m*3 19.8 C 14.5 km/h
1011 31-07-2021 12:10:00 19.8 C 11.27 g/m*3 19.8 C 24.1 km/h
1012 31-07-2021 12:15:00 19.8 C 11.44 g/m*3 19.8 C 17.7 km/h
1013 31-07-2021 12:20:00 19.8 C 11.27 g/m*3 19.8 C 14.5 km/h
1014 31-07-2021 12:25:00 19.9 C 11.17 g/m*3 19.9 C 17.7 km/h
1015 31-07-2021 12:30:00 19.9 C 11.34 g/m*3 19.9 C 20.9 km/h
1016 31-07-2021 12:35:00 19.9 C 11.17 g/m*3 19.9 C 20.9 km/h
1017 31-07-2021 12:40:00 19.9 C 11.34 g/m*3 19.9 C 17.7 km/h
1018 31-07-2021 12:45:00 20 C 11.58 g/m*3 20 C 14.5 km/h
1019 31-07-2021 12:50:00 20.2 C 11.54 g/m*3 20.2 C 19.3 km/h
1020 31-07-2021 12:55:00 20.4 C 11.85 g/m*3 20.4 C 16.1 km/h
1021 31-07-2021 13:00:00 20.6 C 11.63 g/m*3 20.6 C 16.1 km/h
1022 31-07-2021 13:05:00 20.7 C 11.34 g/m*3 20.7 C 19.3 km/h
1023 31-07-2021 13:10:00 20.8 C 11.41 g/m*3 20.8 C 22.5 km/h
1024 31-07-2021 13:15:00 20.8 C 11.41 g/m*3 20.8 C 19.3 km/h
1025 31-07-2021 13:20:00 20.8 C 11.41 g/m*3 20.8 C 17.7 km/h
Sensor: Nr:Datum:Temp:Abs-Feuchte:Windchill:Wind:
Aussen-T/F 1026 31-07-2021 13:25:00 20.7 C 10.98 g/m*3 20.7 C 20.9 km/h
1027 31-07-2021 13:30:00 20.7 C 11.52 g/m*3 20.7 C 11.3 km/h
1028 31-07-2021 13:35:00 20.7 C 11.52 g/m*3 20.7 C 11.3 km/h
1029 31-07-2021 13:40:00 20.7 C 11.52 g/m*3 20.7 C 12.9 km/h
1030 31-07-2021 13:45:00 20.6 C 11.45 g/m*3 20.6 C 12.9 km/h
1031 31-07-2021 13:50:00 20.7 C 11.34 g/m*3 20.7 C 14.5 km/h
1032 31-07-2021 13:55:00 20.7 C 10.98 g/m*3 20.7 C 20.9 km/h
1033 31-07-2021 14:00:00 20.8 C 11.05 g/m*3 20.8 C 17.7 km/h
1034 31-07-2021 14:05:00 20.8 C 11.23 g/m*3 20.8 C 17.7 km/h
1035 31-07-2021 14:10:00 21 C 11.72 g/m*3 21 C 19.3 km/h
1036 31-07-2021 14:15:00 21.1 C 11.42 g/m*3 21.1 C 16.1 km/h
1037 31-07-2021 14:20:00 21.1 C 11.06 g/m*3 21.1 C 19.3 km/h
1038 31-07-2021 14:25:00 21.1 C 11.42 g/m*3 21.1 C 16.1 km/h
1039 31-07-2021 14:30:00 21.2 C 11.49 g/m*3 21.2 C 11.3 km/h
1040 31-07-2021 14:35:00 21.3 C 11.37 g/m*3 21.3 C 16.1 km/h
1041 31-07-2021 14:40:00 21.4 C 11.25 g/m*3 21.4 C 12.9 km/h
1042 31-07-2021 14:45:00 21.4 C 11.06 g/m*3 21.4 C 16.1 km/h
1043 31-07-2021 14:50:00 21.4 C 11.25 g/m*3 21.4 C 17.7 km/h
1044 31-07-2021 14:55:00 21.4 C 11.25 g/m*3 21.4 C 16.1 km/h
1045 31-07-2021 15:00:00 21.3 C 11.37 g/m*3 21.3 C 17.7 km/h
1046 31-07-2021 15:05:00 21.4 C 11.62 g/m*3 21.4 C 16.1 km/h
1047 31-07-2021 15:10:00 21.6 C 11.76 g/m*3 21.6 C 14.5 km/h
1048 31-07-2021 15:15:00 21.6 C 11.38 g/m*3 21.6 C 16.1 km/h
1049 31-07-2021 15:20:00 21.4 C 10.87 g/m*3 21.4 C 16.1 km/h
1050 31-07-2021 15:25:00 21.3 C 11.18 g/m*3 21.3 C 17.7 km/h
Sensor: Nr:Datum:Temp:Abs-Feuchte:Windchill:Wind:
Aussen-T/F 1051 31-07-2021 15:30:00 21.3 C 11.74 g/m*3 21.3 C 8.1 km/h
1052 31-07-2021 15:35:00 21.3 C 11.37 g/m*3 21.3 C 11.3 km/h
1053 31-07-2021 15:40:00 21.3 C 11.74 g/m*3 21.3 C 16.1 km/h
1054 31-07-2021 15:45:00 21.3 C 11.37 g/m*3 21.3 C 16.1 km/h
1055 31-07-2021 15:50:00 21.4 C 11.44 g/m*3 21.4 C 14.5 km/h
1056 31-07-2021 15:55:00 21.8 C 11.9 g/m*3 21.8 C 12.9 km/h
1057 31-07-2021 16:00:00 22.4 C 11.32 g/m*3 22.4 C 22.5 km/h
1058 31-07-2021 16:05:00 22.5 C 11.58 g/m*3 22.5 C 12.9 km/h
1059 31-07-2021 16:10:00 22.4 C 11.12 g/m*3 22.4 C 16.1 km/h
1060 31-07-2021 16:15:00 22.3 C 11.26 g/m*3 22.3 C 12.9 km/h
1061 31-07-2021 16:20:00 22.3 C 11.45 g/m*3 22.3 C 8.1 km/h
1062 31-07-2021 16:25:00 22.3 C 11.26 g/m*3 22.3 C 9.7 km/h
1063 31-07-2021 16:30:00 22.1 C 11.32 g/m*3 22.1 C 9.7 km/h
1064 31-07-2021 16:35:00 21.9 C 11.58 g/m*3 21.9 C 9.7 km/h
1065 31-07-2021 16:40:00 21.8 C 11.32 g/m*3 21.8 C 9.7 km/h
1066 31-07-2021 16:45:00 21.7 C 11.45 g/m*3 21.7 C 11.3 km/h
1067 31-07-2021 16:50:00 21.7 C 11.25 g/m*3 21.7 C 12.9 km/h
1068 31-07-2021 16:55:00 21.7 C 11.25 g/m*3 21.7 C 8.1 km/h
1069 31-07-2021 17:00:00 21.7 C 11.64 g/m*3 21.7 C 6.4 km/h
1070 31-07-2021 17:05:00 21.6 C 11.76 g/m*3 21.6 C 4.8 km/h
1071 31-07-2021 17:10:00 21.4 C 11.62 g/m*3 21.4 C 8.1 km/h
1072 31-07-2021 17:15:00 21.3 C 11.74 g/m*3 21.3 C 6.4 km/h
1073 31-07-2021 17:20:00 21.4 C 12.19 g/m*3 21.4 C 11.3 km/h
1074 31-07-2021 17:25:00 21.4 C 12 g/m*3 21.4 C 4.8 km/h
1075 31-07-2021 17:30:00 21.4 C 12 g/m*3 21.4 C 6.4 km/h
Sensor: Nr:Datum:Temp:Abs-Feuchte:Windchill:Wind:
Aussen-T/F 1076 31-07-2021 17:35:00 22.1 C 12.1 g/m*3 22.1 C 16.1 km/h
1077 31-07-2021 17:40:00 23 C 11.72 g/m*3 23 C 12.9 km/h
1078 31-07-2021 17:45:00 23.4 C 11.78 g/m*3 23.4 C 12.9 km/h
1079 31-07-2021 17:50:00 21.8 C 11.51 g/m*3 21.8 C 11.3 km/h
1080 31-07-2021 17:55:00 21.7 C 11.83 g/m*3 21.7 C 11.3 km/h
1081 31-07-2021 18:20:00 21.6 C 12.33 g/m*3 21.6 C 9.7 km/h
1082 31-07-2021 18:25:00 21.5 C 12.82 g/m*3 21.5 C 4.8 km/h
1083 31-07-2021 18:30:00 21.3 C 12.49 g/m*3 21.3 C 6.4 km/h
1084 31-07-2021 18:35:00 21.1 C 12.53 g/m*3 21.1 C 1.6 km/h
1085 31-07-2021 18:40:00 21 C 12.46 g/m*3 21 C 6.4 km/h
1086 31-07-2021 18:45:00 20.9 C 12.02 g/m*3 20.9 C 4.8 km/h
1087 31-07-2021 18:50:00 20.9 C 11.29 g/m*3 20.9 C 8.1 km/h
1088 31-07-2021 18:55:00 20.9 C 11.66 g/m*3 20.9 C 4.8 km/h
1089 31-07-2021 19:00:00 21.1 C 11.24 g/m*3 21.1 C 6.4 km/h
1090 31-07-2021 19:05:00 21.1 C 11.42 g/m*3 21.1 C 9.7 km/h
1091 31-07-2021 19:10:00 21.2 C 11.68 g/m*3 21.2 C 6.4 km/h
1092 31-07-2021 19:15:00 21.2 C 12.05 g/m*3 21.2 C 4.8 km/h
1093 31-07-2021 19:20:00 21.3 C 13.23 g/m*3 21.3 C 3.2 km/h
1094 31-07-2021 19:25:00 21.3 C 13.61 g/m*3 21.3 C 0 km/h
1095 31-07-2021 19:30:00 21.2 C 13.71 g/m*3 21.2 C 0 km/h
1096 31-07-2021 19:35:00 21.1 C 13.45 g/m*3 21.1 C 1.6 km/h
1097 31-07-2021 19:40:00 20.8 C 12.86 g/m*3 20.8 C 0 km/h
1098 31-07-2021 19:45:00 20.6 C 13.07 g/m*3 20.6 C 0 km/h
1099 31-07-2021 19:50:00 20.3 C 12.84 g/m*3 20.3 C 3.2 km/h
1100 31-07-2021 19:55:00 20.2 C 12.76 g/m*3 20.2 C 0 km/h
Sensor: Nr:Datum:Temp:Abs-Feuchte:Windchill:Wind:
Aussen-T/F 1101 31-07-2021 20:00:00 20 C 12.96 g/m*3 20 C 3.2 km/h
1102 31-07-2021 20:05:00 19.8 C 12.81 g/m*3 19.8 C 3.2 km/h
1103 31-07-2021 20:10:00 19.7 C 12.91 g/m*3 19.7 C 3.2 km/h
1104 31-07-2021 20:15:00 19.5 C 12.59 g/m*3 19.5 C 0 km/h
1105 31-07-2021 20:20:00 19.4 C 12.85 g/m*3 19.4 C 0 km/h
1106 31-07-2021 20:25:00 19.2 C 12.53 g/m*3 19.2 C 6.4 km/h
1107 31-07-2021 20:30:00 19.1 C 12.13 g/m*3 19.1 C 6.4 km/h
1108 31-07-2021 20:35:00 19 C 12.06 g/m*3 19 C 4.8 km/h
1109 31-07-2021 20:40:00 19 C 12.22 g/m*3 19 C 1.6 km/h
1110 31-07-2021 20:45:00 19 C 12.39 g/m*3 19 C 0 km/h
1111 31-07-2021 20:50:00 18.9 C 12.47 g/m*3 18.9 C 1.6 km/h
1112 31-07-2021 20:55:00 18.8 C 12.4 g/m*3 18.8 C 0 km/h
1113 31-07-2021 21:00:00 18.7 C 12.49 g/m*3 18.7 C 4.8 km/h
1114 31-07-2021 21:05:00 18.6 C 12.41 g/m*3 18.6 C 4.8 km/h
1115 31-07-2021 21:10:00 18.4 C 12.43 g/m*3 18.4 C 4.8 km/h
1116 31-07-2021 21:15:00 18.3 C 12.51 g/m*3 18.3 C 4.8 km/h
1117 31-07-2021 21:20:00 18.2 C 12.43 g/m*3 18.2 C 3.2 km/h
1118 31-07-2021 21:25:00 18.1 C 12.36 g/m*3 18.1 C 0 km/h
1119 31-07-2021 21:30:00 17.9 C 12.37 g/m*3 17.9 C 0 km/h
1120 31-07-2021 21:35:00 17.8 C 12.29 g/m*3 17.8 C 0 km/h
1121 31-07-2021 21:40:00 17.8 C 12.45 g/m*3 17.8 C 0 km/h
1122 31-07-2021 21:45:00 17.7 C 12.22 g/m*3 17.7 C 0 km/h
1123 31-07-2021 21:50:00 17.7 C 12.22 g/m*3 17.7 C 0 km/h
1124 31-07-2021 21:55:00 17.6 C 12.3 g/m*3 17.6 C 0 km/h
1125 31-07-2021 22:00:00 17.6 C 12.3 g/m*3 17.6 C 0 km/h
Sensor: Nr:Datum:Temp:Abs-Feuchte:Windchill:Wind:
Aussen-T/F 1126 31-07-2021 22:05:00 17.5 C 12.08 g/m*3 17.5 C 0 km/h
1127 31-07-2021 22:10:00 17.4 C 12.15 g/m*3 17.4 C 0 km/h
1128 31-07-2021 22:15:00 17.4 C 12.15 g/m*3 17.4 C 0 km/h
1129 31-07-2021 22:20:00 17.4 C 12.3 g/m*3 17.4 C 0 km/h
1130 31-07-2021 22:25:00 17.4 C 12.3 g/m*3 17.4 C 0 km/h
1131 31-07-2021 22:30:00 17.4 C 12.3 g/m*3 17.4 C 0 km/h
1132 31-07-2021 22:35:00 17.3 C 12.37 g/m*3 17.3 C 0 km/h
1133 31-07-2021 22:40:00 17.3 C 12.23 g/m*3 17.3 C 0 km/h
1134 31-07-2021 22:45:00 17.2 C 12.3 g/m*3 17.2 C 0 km/h
1135 31-07-2021 22:50:00 17.1 C 12.23 g/m*3 17.1 C 0 km/h
1136 31-07-2021 22:55:00 17.1 C 12.23 g/m*3 17.1 C 0 km/h
1137 31-07-2021 23:00:00 16.9 C 12.08 g/m*3 16.9 C 0 km/h
1138 31-07-2021 23:05:00 16.8 C 12.01 g/m*3 16.8 C 0 km/h
1139 31-07-2021 23:10:00 16.7 C 11.94 g/m*3 16.7 C 0 km/h
1140 31-07-2021 23:15:00 16.5 C 11.8 g/m*3 16.5 C 4.8 km/h
1141 31-07-2021 23:20:00 16.4 C 11.72 g/m*3 16.4 C 6.4 km/h
1142 31-07-2021 23:25:00 16.4 C 11.86 g/m*3 16.4 C 4.8 km/h
1143 31-07-2021 23:30:00 16.4 C 11.86 g/m*3 16.4 C 3.2 km/h
1144 31-07-2021 23:35:00 16.4 C 11.86 g/m*3 16.4 C 3.2 km/h
1145 31-07-2021 23:40:00 16.4 C 11.86 g/m*3 16.4 C 0 km/h
1146 31-07-2021 23:45:00 16.4 C 12 g/m*3 16.4 C 0 km/h
1147 31-07-2021 23:50:00 16.3 C 11.79 g/m*3 16.3 C 3.2 km/h
1148 31-07-2021 23:55:00 16.2 C 11.86 g/m*3 16.2 C 4.8 km/h
1149 01-08-2021 00:00:00 16.1 C 11.79 g/m*3 16.1 C 3.2 km/h
1150 01-08-2021 00:05:00 16.1 C 11.79 g/m*3 16.1 C 3.2 km/h
Sensor: Nr:Datum:Temp:Abs-Feuchte:Windchill:Wind:
Aussen-T/F 1151 01-08-2021 00:10:00 16 C 11.72 g/m*3 16 C 3.2 km/h
1152 01-08-2021 00:15:00 15.9 C 11.65 g/m*3 15.9 C 1.6 km/h
1153 01-08-2021 00:20:00 15.8 C 11.58 g/m*3 15.8 C 3.2 km/h
1154 01-08-2021 00:25:00 15.8 C 11.58 g/m*3 15.8 C 0 km/h
1155 01-08-2021 00:30:00 15.7 C 11.51 g/m*3 15.7 C 0 km/h
1156 01-08-2021 00:35:00 15.6 C 11.44 g/m*3 15.6 C 0 km/h
1157 01-08-2021 00:40:00 15.6 C 11.57 g/m*3 15.6 C 0 km/h
1158 01-08-2021 00:45:00 15.4 C 11.43 g/m*3 15.4 C 0 km/h
1159 01-08-2021 00:50:00 15.4 C 11.43 g/m*3 15.4 C 0 km/h
1160 01-08-2021 00:55:00 15.3 C 11.36 g/m*3 15.3 C 1.6 km/h
1161 01-08-2021 01:00:00 15.3 C 11.49 g/m*3 15.3 C 0 km/h
1162 01-08-2021 01:05:00 15.3 C 11.49 g/m*3 15.3 C 1.6 km/h
1163 01-08-2021 01:10:00 15.3 C 11.62 g/m*3 15.3 C 0 km/h
1164 01-08-2021 01:15:00 15.3 C 11.62 g/m*3 15.3 C 0 km/h
1165 01-08-2021 01:20:00 15.3 C 11.62 g/m*3 15.3 C 0 km/h
1166 01-08-2021 01:25:00 15.3 C 11.62 g/m*3 15.3 C 0 km/h
1167 01-08-2021 01:30:00 15.3 C 11.62 g/m*3 15.3 C 0 km/h
1168 01-08-2021 01:35:00 15.3 C 11.62 g/m*3 15.3 C 0 km/h
1169 01-08-2021 01:40:00 15.3 C 11.62 g/m*3 15.3 C 0 km/h
1170 01-08-2021 01:45:00 15.4 C 11.82 g/m*3 15.4 C 0 km/h
1171 01-08-2021 01:50:00 15.4 C 11.82 g/m*3 15.4 C 0 km/h
1172 01-08-2021 01:55:00 15.3 C 11.62 g/m*3 15.3 C 1.6 km/h
1173 01-08-2021 02:00:00 15.3 C 11.62 g/m*3 15.3 C 0 km/h
1174 01-08-2021 02:05:00 15.4 C 11.69 g/m*3 15.4 C 0 km/h
1175 01-08-2021 02:10:00 15.4 C 11.82 g/m*3 15.4 C 0 km/h
Sensor: Nr:Datum:Temp:Abs-Feuchte:Windchill:Wind:
Aussen-T/F 1176 01-08-2021 02:15:00 15.4 C 11.82 g/m*3 15.4 C 0 km/h
1177 01-08-2021 02:20:00 15.4 C 11.69 g/m*3 15.4 C 0 km/h
1178 01-08-2021 02:25:00 15.4 C 11.69 g/m*3 15.4 C 0 km/h
1179 01-08-2021 02:30:00 15.3 C 11.62 g/m*3 15.3 C 0 km/h
1180 01-08-2021 02:35:00 15.3 C 11.62 g/m*3 15.3 C 0 km/h
1181 01-08-2021 02:40:00 15.3 C 11.62 g/m*3 15.3 C 1.6 km/h
1182 01-08-2021 02:45:00 15.2 C 11.55 g/m*3 15.2 C 1.6 km/h
1183 01-08-2021 02:50:00 15.2 C 11.55 g/m*3 15.2 C 0 km/h
1184 01-08-2021 02:55:00 15.1 C 11.48 g/m*3 15.1 C 1.6 km/h
1185 01-08-2021 03:00:00 15 C 11.41 g/m*3 15 C 1.6 km/h
1186 01-08-2021 03:05:00 14.9 C 11.34 g/m*3 14.9 C 1.6 km/h
1187 01-08-2021 03:10:00 14.8 C 11.27 g/m*3 14.8 C 0 km/h
1188 01-08-2021 03:15:00 14.7 C 11.21 g/m*3 14.7 C 0 km/h
1189 01-08-2021 03:20:00 14.6 C 11.26 g/m*3 14.6 C 1.6 km/h
1190 01-08-2021 03:25:00 14.5 C 11.19 g/m*3 14.5 C 1.6 km/h
1191 01-08-2021 03:30:00 14.4 C 11.13 g/m*3 14.4 C 3.2 km/h
1192 01-08-2021 03:35:00 14.3 C 11.06 g/m*3 14.3 C 1.6 km/h
1193 01-08-2021 03:40:00 14.2 C 10.99 g/m*3 14.2 C 0 km/h
1194 01-08-2021 03:45:00 14.1 C 10.92 g/m*3 14.1 C 0 km/h
1195 01-08-2021 03:50:00 14.1 C 11.04 g/m*3 14.1 C 0 km/h
1196 01-08-2021 03:55:00 13.9 C 10.91 g/m*3 13.9 C 0 km/h
1197 01-08-2021 04:00:00 13.8 C 10.84 g/m*3 13.8 C 0 km/h
1198 01-08-2021 04:05:00 13.8 C 10.84 g/m*3 13.8 C 0 km/h
1199 01-08-2021 04:10:00 13.8 C 10.84 g/m*3 13.8 C 0 km/h
1200 01-08-2021 04:15:00 13.7 C 10.89 g/m*3 13.7 C 0 km/h
Sensor: Nr:Datum:Temp:Abs-Feuchte:Windchill:Wind:
Aussen-T/F 1201 01-08-2021 04:20:00 13.7 C 10.89 g/m*3 13.7 C 0 km/h
1202 01-08-2021 04:25:00 13.7 C 10.89 g/m*3 13.7 C 0 km/h
1203 01-08-2021 04:30:00 13.7 C 11.01 g/m*3 13.7 C 0 km/h
1204 01-08-2021 04:35:00 13.7 C 11.01 g/m*3 13.7 C 0 km/h
1205 01-08-2021 04:40:00 13.7 C 11.01 g/m*3 13.7 C 0 km/h
1206 01-08-2021 04:45:00 13.7 C 11.01 g/m*3 13.7 C 0 km/h
1207 01-08-2021 04:50:00 13.6 C 10.95 g/m*3 13.6 C 0 km/h
1208 01-08-2021 04:55:00 13.6 C 10.95 g/m*3 13.6 C 0 km/h
1209 01-08-2021 05:00:00 13.6 C 10.95 g/m*3 13.6 C 0 km/h
1210 01-08-2021 05:05:00 13.6 C 10.95 g/m*3 13.6 C 0 km/h
1211 01-08-2021 05:10:00 13.6 C 10.95 g/m*3 13.6 C 0 km/h
1212 01-08-2021 05:15:00 13.6 C 10.95 g/m*3 13.6 C 0 km/h
1213 01-08-2021 05:20:00 13.6 C 10.95 g/m*3 13.6 C 0 km/h
1214 01-08-2021 05:25:00 13.6 C 10.95 g/m*3 13.6 C 0 km/h
1215 01-08-2021 05:30:00 13.5 C 10.88 g/m*3 13.5 C 0 km/h
1216 01-08-2021 05:35:00 13.4 C 10.81 g/m*3 13.4 C 0 km/h
1217 01-08-2021 05:40:00 13.4 C 10.81 g/m*3 13.4 C 0 km/h
1218 01-08-2021 05:45:00 13.4 C 10.93 g/m*3 13.4 C 1.6 km/h
1219 01-08-2021 05:50:00 13.5 C 10.99 g/m*3 13.5 C 1.6 km/h
1220 01-08-2021 05:55:00 13.5 C 10.99 g/m*3 13.5 C 0 km/h
1221 01-08-2021 06:00:00 13.5 C 10.99 g/m*3 13.5 C 0 km/h
1222 01-08-2021 06:05:00 13.4 C 10.93 g/m*3 13.4 C 3.2 km/h
1223 01-08-2021 06:10:00 13.4 C 10.93 g/m*3 13.4 C 0 km/h
1224 01-08-2021 06:15:00 13.4 C 10.93 g/m*3 13.4 C 4.8 km/h
1225 01-08-2021 06:20:00 13.5 C 10.99 g/m*3 13.5 C 1.6 km/h
Sensor: Nr:Datum:Temp:Abs-Feuchte:Windchill:Wind:
Aussen-T/F 1226 01-08-2021 06:25:00 13.5 C 10.99 g/m*3 13.5 C 0 km/h
1227 01-08-2021 06:30:00 13.5 C 10.99 g/m*3 13.5 C 4.8 km/h
1228 01-08-2021 06:35:00 13.6 C 11.06 g/m*3 13.6 C 1.6 km/h
1229 01-08-2021 06:40:00 13.6 C 11.06 g/m*3 13.6 C 0 km/h
1230 01-08-2021 06:45:00 13.6 C 11.06 g/m*3 13.6 C 4.8 km/h
1231 01-08-2021 06:50:00 13.7 C 11.13 g/m*3 13.7 C 6.4 km/h
1232 01-08-2021 06:55:00 13.8 C 11.2 g/m*3 13.8 C 8.1 km/h
1233 01-08-2021 07:00:00 13.8 C 11.2 g/m*3 13.8 C 4.8 km/h
1234 01-08-2021 07:05:00 13.9 C 11.27 g/m*3 13.9 C 4.8 km/h
1235 01-08-2021 07:10:00 14 C 11.34 g/m*3 14 C 6.4 km/h
1236 01-08-2021 07:15:00 14.1 C 11.41 g/m*3 14.1 C 6.4 km/h
1237 01-08-2021 07:20:00 14.1 C 11.29 g/m*3 14.1 C 4.8 km/h
1238 01-08-2021 07:25:00 14.2 C 11.36 g/m*3 14.2 C 1.6 km/h
1239 01-08-2021 07:30:00 14.2 C 11.36 g/m*3 14.2 C 6.4 km/h
1240 01-08-2021 07:35:00 14.3 C 11.43 g/m*3 14.3 C 1.6 km/h
1241 01-08-2021 07:40:00 14.3 C 11.43 g/m*3 14.3 C 6.4 km/h
1242 01-08-2021 07:45:00 14.4 C 11.5 g/m*3 14.4 C 6.4 km/h
1243 01-08-2021 07:50:00 14.4 C 11.5 g/m*3 14.4 C 6.4 km/h
1244 01-08-2021 07:55:00 14.5 C 11.44 g/m*3 14.5 C 6.4 km/h
1245 01-08-2021 08:00:00 14.6 C 11.51 g/m*3 14.6 C 4.8 km/h
1246 01-08-2021 08:05:00 14.7 C 11.71 g/m*3 14.7 C 3.2 km/h
1247 01-08-2021 08:10:00 14.7 C 11.58 g/m*3 14.7 C 3.2 km/h
1248 01-08-2021 08:15:00 14.8 C 11.65 g/m*3 14.8 C 3.2 km/h
1249 01-08-2021 08:20:00 14.9 C 11.73 g/m*3 14.9 C 3.2 km/h
1250 01-08-2021 08:25:00 14.9 C 11.73 g/m*3 14.9 C 3.2 km/h
Sensor: Nr:Datum:Temp:Abs-Feuchte:Windchill:Wind:
Aussen-T/F 1251 01-08-2021 08:30:00 15 C 11.8 g/m*3 15 C 6.4 km/h
1252 01-08-2021 08:35:00 15.1 C 11.74 g/m*3 15.1 C 3.2 km/h
1253 01-08-2021 08:40:00 15.2 C 11.81 g/m*3 15.2 C 4.8 km/h
1254 01-08-2021 08:45:00 15.3 C 11.88 g/m*3 15.3 C 6.4 km/h
1255 01-08-2021 08:50:00 15.3 C 11.88 g/m*3 15.3 C 3.2 km/h
1256 01-08-2021 08:55:00 15.4 C 11.82 g/m*3 15.4 C 4.8 km/h
1257 01-08-2021 09:00:00 15.5 C 11.9 g/m*3 15.5 C 3.2 km/h
1258 01-08-2021 09:05:00 15.6 C 11.97 g/m*3 15.6 C 6.4 km/h
1259 01-08-2021 09:10:00 15.7 C 11.91 g/m*3 15.7 C 8.1 km/h
1260 01-08-2021 09:15:00 15.8 C 11.98 g/m*3 15.8 C 4.8 km/h
1261 01-08-2021 09:20:00 15.8 C 11.98 g/m*3 15.8 C 4.8 km/h
1262 01-08-2021 09:25:00 15.9 C 11.92 g/m*3 15.9 C 6.4 km/h
1263 01-08-2021 09:30:00 16.1 C 12.06 g/m*3 16.1 C 6.4 km/h
1264 01-08-2021 09:35:00 16.2 C 12 g/m*3 16.2 C 4.8 km/h
1265 01-08-2021 09:40:00 16.3 C 11.93 g/m*3 16.3 C 3.2 km/h
1266 01-08-2021 09:45:00 16.4 C 12 g/m*3 16.4 C 1.6 km/h
1267 01-08-2021 09:50:00 16.5 C 12.22 g/m*3 16.5 C 0 km/h
1268 01-08-2021 09:55:00 16.5 C 11.94 g/m*3 16.5 C 1.6 km/h
1269 01-08-2021 10:00:00 16.6 C 12.15 g/m*3 16.6 C 0 km/h
1270 01-08-2021 10:05:00 16.7 C 12.08 g/m*3 16.7 C 0 km/h
1271 01-08-2021 10:10:00 16.8 C 12.15 g/m*3 16.8 C 3.2 km/h
1272 01-08-2021 10:15:00 17 C 12.15 g/m*3 17 C 3.2 km/h
1273 01-08-2021 10:20:00 17.1 C 12.08 g/m*3 17.1 C 1.6 km/h
1274 01-08-2021 10:25:00 17.3 C 12.23 g/m*3 17.3 C 3.2 km/h
1275 01-08-2021 10:30:00 17.7 C 12.67 g/m*3 17.7 C 0 km/h
Sensor: Nr:Datum:Temp:Abs-Feuchte:Windchill:Wind:
Aussen-T/F 1276 01-08-2021 10:35:00 17.9 C 12.21 g/m*3 17.9 C 6.4 km/h
1277 01-08-2021 10:40:00 18.2 C 12.43 g/m*3 18.2 C 4.8 km/h
1278 01-08-2021 10:45:00 18.3 C 12.35 g/m*3 18.3 C 4.8 km/h
1279 01-08-2021 10:50:00 18.4 C 12.27 g/m*3 18.4 C 6.4 km/h
1280 01-08-2021 10:55:00 18.6 C 12.1 g/m*3 18.6 C 8.1 km/h
1281 01-08-2021 11:00:00 18.7 C 12.17 g/m*3 18.7 C 4.8 km/h
1282 01-08-2021 11:05:00 18.7 C 12.17 g/m*3 18.7 C 6.4 km/h
1283 01-08-2021 11:10:00 18.7 C 12.17 g/m*3 18.7 C 4.8 km/h
1284 01-08-2021 11:15:00 18.7 C 12.81 g/m*3 18.7 C 0 km/h
1285 01-08-2021 11:20:00 18.7 C 12.49 g/m*3 18.7 C 6.4 km/h
1286 01-08-2021 11:25:00 18.7 C 11.85 g/m*3 18.7 C 6.4 km/h
1287 01-08-2021 11:30:00 18.8 C 11.6 g/m*3 18.8 C 9.7 km/h
1288 01-08-2021 11:35:00 19.1 C 11.8 g/m*3 19.1 C 6.4 km/h
1289 01-08-2021 11:40:00 19.2 C 11.87 g/m*3 19.2 C 6.4 km/h
1290 01-08-2021 11:45:00 19.4 C 11.85 g/m*3 19.4 C 8.1 km/h
1291 01-08-2021 11:50:00 19.6 C 11.99 g/m*3 19.6 C 6.4 km/h
1292 01-08-2021 11:55:00 19.7 C 11.89 g/m*3 19.7 C 8.1 km/h
1293 01-08-2021 12:00:00 19.8 C 12.13 g/m*3 19.8 C 11.3 km/h
1294 01-08-2021 12:05:00 19.8 C 12.13 g/m*3 19.8 C 4.8 km/h
1295 01-08-2021 12:10:00 19.8 C 12.3 g/m*3 19.8 C 0 km/h
1296 01-08-2021 12:15:00 19.7 C 12.23 g/m*3 19.7 C 4.8 km/h
1297 01-08-2021 12:20:00 19.7 C 12.74 g/m*3 19.7 C 4.8 km/h
1298 01-08-2021 12:25:00 19.5 C 11.75 g/m*3 19.5 C 14.5 km/h
1299 01-08-2021 12:30:00 19.5 C 11.92 g/m*3 19.5 C 9.7 km/h
1300 01-08-2021 12:35:00 19.7 C 12.06 g/m*3 19.7 C 14.5 km/h
Sensor: Nr:Datum:Temp:Abs-Feuchte:Windchill:Wind:
Aussen-T/F 1301 01-08-2021 12:40:00 20.1 C 11.99 g/m*3 20.1 C 11.3 km/h
1302 01-08-2021 12:45:00 20.3 C 11.96 g/m*3 20.3 C 8.1 km/h
1303 01-08-2021 12:50:00 20.3 C 11.96 g/m*3 20.3 C 9.7 km/h
1304 01-08-2021 12:55:00 20.2 C 11.89 g/m*3 20.2 C 9.7 km/h
1305 01-08-2021 13:00:00 20.1 C 11.99 g/m*3 20.1 C 11.3 km/h
1306 01-08-2021 13:05:00 20.2 C 11.89 g/m*3 20.2 C 11.3 km/h
1307 01-08-2021 13:10:00 20.4 C 12.21 g/m*3 20.4 C 11.3 km/h
1308 01-08-2021 13:15:00 20.4 C 11.5 g/m*3 20.4 C 17.7 km/h
1309 01-08-2021 13:20:00 20.3 C 11.61 g/m*3 20.3 C 12.9 km/h
1310 01-08-2021 13:25:00 20.4 C 12.03 g/m*3 20.4 C 8.1 km/h
1311 01-08-2021 13:30:00 20.8 C 11.41 g/m*3 20.8 C 17.7 km/h
1312 01-08-2021 13:35:00 20.9 C 11.66 g/m*3 20.9 C 9.7 km/h
1313 01-08-2021 13:40:00 20.9 C 11.66 g/m*3 20.9 C 9.7 km/h
1314 01-08-2021 13:45:00 21.2 C 11.49 g/m*3 21.2 C 11.3 km/h
1315 01-08-2021 13:50:00 21.3 C 11.37 g/m*3 21.3 C 11.3 km/h
1316 01-08-2021 13:55:00 21.2 C 11.12 g/m*3 21.2 C 17.7 km/h
1317 01-08-2021 14:00:00 20.9 C 11.11 g/m*3 20.9 C 17.7 km/h
1318 01-08-2021 14:05:00 20.8 C 11.05 g/m*3 20.8 C 12.9 km/h
1319 01-08-2021 14:10:00 20.8 C 11.41 g/m*3 20.8 C 17.7 km/h
1320 01-08-2021 14:15:00 20.7 C 11.34 g/m*3 20.7 C 11.3 km/h
1321 01-08-2021 14:20:00 20.7 C 11.52 g/m*3 20.7 C 9.7 km/h
1322 01-08-2021 14:25:00 20.7 C 11.34 g/m*3 20.7 C 9.7 km/h
1323 01-08-2021 14:30:00 20.8 C 11.41 g/m*3 20.8 C 14.5 km/h
1324 01-08-2021 14:35:00 20.9 C 11.47 g/m*3 20.9 C 14.5 km/h
1325 01-08-2021 14:40:00 21 C 11.91 g/m*3 21 C 11.3 km/h
Sensor: Nr:Datum:Temp:Abs-Feuchte:Windchill:Wind:
Aussen-T/F 1326 01-08-2021 14:45:00 21.1 C 11.61 g/m*3 21.1 C 9.7 km/h
1327 01-08-2021 14:50:00 21.2 C 11.68 g/m*3 21.2 C 11.3 km/h
1328 01-08-2021 14:55:00 21.4 C 11.44 g/m*3 21.4 C 12.9 km/h
1329 01-08-2021 15:00:00 21.6 C 11.38 g/m*3 21.6 C 12.9 km/h
1330 01-08-2021 15:05:00 21.7 C 11.45 g/m*3 21.7 C 14.5 km/h
1331 01-08-2021 15:10:00 21.9 C 11.19 g/m*3 21.9 C 9.7 km/h
1332 01-08-2021 15:15:00 21.9 C 11.39 g/m*3 21.9 C 9.7 km/h
1333 01-08-2021 15:20:00 22.1 C 11.32 g/m*3 22.1 C 12.9 km/h
1334 01-08-2021 15:25:00 22.4 C 10.72 g/m*3 22.4 C 16.1 km/h
1335 01-08-2021 15:30:00 22.6 C 10.65 g/m*3 22.6 C 22.5 km/h
1336 01-08-2021 15:35:00 22.8 C 10.97 g/m*3 22.8 C 11.3 km/h
1337 01-08-2021 15:40:00 22.8 C 10.97 g/m*3 22.8 C 11.3 km/h
1338 01-08-2021 15:45:00 22.7 C 11.72 g/m*3 22.7 C 6.4 km/h
1339 01-08-2021 15:50:00 22.8 C 11.18 g/m*3 22.8 C 16.1 km/h
1340 01-08-2021 15:55:00 22.9 C 11.04 g/m*3 22.9 C 9.7 km/h
1341 01-08-2021 16:00:00 23.2 C 11.64 g/m*3 23.2 C 11.3 km/h
1342 01-08-2021 16:05:00 23.2 C 11.23 g/m*3 23.2 C 12.9 km/h
1343 01-08-2021 16:10:00 22.9 C 11.24 g/m*3 22.9 C 8.1 km/h
1344 01-08-2021 16:15:00 22.7 C 11.72 g/m*3 22.7 C 11.3 km/h
1345 01-08-2021 16:20:00 22.2 C 10.99 g/m*3 22.2 C 11.3 km/h
1346 01-08-2021 16:25:00 21.9 C 11.19 g/m*3 21.9 C 6.4 km/h
1347 01-08-2021 16:30:00 21.8 C 11.32 g/m*3 21.8 C 4.8 km/h
1348 01-08-2021 16:35:00 21.7 C 11.45 g/m*3 21.7 C 8.1 km/h
1349 01-08-2021 16:40:00 21.6 C 11 g/m*3 21.6 C 8.1 km/h
1350 01-08-2021 16:45:00 21.5 C 12.07 g/m*3 21.5 C 3.2 km/h
Sensor: Nr:Datum:Temp:Abs-Feuchte:Windchill:Wind:
Aussen-T/F 1351 01-08-2021 16:50:00 21.4 C 12 g/m*3 21.4 C 0 km/h
1352 01-08-2021 16:55:00 21.3 C 12.68 g/m*3 21.3 C 4.8 km/h
1353 01-08-2021 17:00:00 21.3 C 13.42 g/m*3 21.3 C 0 km/h
1354 01-08-2021 17:05:00 21.3 C 13.61 g/m*3 21.3 C 0 km/h
1355 01-08-2021 17:10:00 21.6 C 13.66 g/m*3 21.6 C 9.7 km/h
1356 01-08-2021 17:15:00 22.2 C 12.57 g/m*3 22.2 C 16.1 km/h
1357 01-08-2021 17:20:00 22.5 C 11.98 g/m*3 22.5 C 12.9 km/h
1358 01-08-2021 17:25:00 22.3 C 12.44 g/m*3 22.3 C 17.7 km/h
1359 01-08-2021 17:30:00 22.1 C 12.3 g/m*3 22.1 C 14.5 km/h
1360 01-08-2021 17:35:00 22.1 C 12.3 g/m*3 22.1 C 12.9 km/h
1361 01-08-2021 17:40:00 22 C 12.23 g/m*3 22 C 11.3 km/h
1362 01-08-2021 17:45:00 21.5 C 11.69 g/m*3 21.5 C 22.5 km/h
1363 01-08-2021 17:50:00 20.7 C 11.7 g/m*3 20.7 C 20.9 km/h
1364 01-08-2021 17:55:00 20.3 C 11.96 g/m*3 20.3 C 11.3 km/h
1365 01-08-2021 18:00:00 20.2 C 12.59 g/m*3 20.2 C 4.8 km/h
1366 01-08-2021 18:05:00 20.1 C 12.69 g/m*3 20.1 C 9.7 km/h
1367 01-08-2021 18:10:00 20.3 C 12.66 g/m*3 20.3 C 12.9 km/h
1368 01-08-2021 18:15:00 21.1 C 13.08 g/m*3 21.1 C 12.9 km/h
1369 01-08-2021 18:20:00 21.8 C 13.05 g/m*3 21.8 C 12.9 km/h
1370 01-08-2021 18:25:00 21.8 C 13.05 g/m*3 21.8 C 11.3 km/h
1371 01-08-2021 18:30:00 21 C 12.64 g/m*3 21 C 6.4 km/h
1372 01-08-2021 18:35:00 20.3 C 12.66 g/m*3 20.3 C 4.8 km/h
1373 01-08-2021 18:40:00 19.7 C 12.57 g/m*3 19.7 C 8.1 km/h
1374 01-08-2021 18:45:00 19.2 C 12.7 g/m*3 19.2 C 8.1 km/h
1375 01-08-2021 18:50:00 18.9 C 12.8 g/m*3 18.9 C 4.8 km/h
Sensor: Nr:Datum:Temp:Abs-Feuchte:Windchill:Wind:
Aussen-T/F 1376 01-08-2021 18:55:00 18.6 C 13.05 g/m*3 18.6 C 3.2 km/h
1377 01-08-2021 19:00:00 18.3 C 13.29 g/m*3 18.3 C 3.2 km/h
1378 01-08-2021 19:05:00 18 C 13.21 g/m*3 18 C 1.6 km/h
1379 01-08-2021 19:10:00 17.8 C 13.36 g/m*3 17.8 C 4.8 km/h
1380 01-08-2021 19:15:00 17.6 C 13.2 g/m*3 17.6 C 8.1 km/h
1381 01-08-2021 19:20:00 17.4 C 13.19 g/m*3 17.4 C 4.8 km/h
1382 01-08-2021 19:25:00 17.3 C 13.26 g/m*3 17.3 C 4.8 km/h
1383 01-08-2021 19:30:00 17.2 C 13.18 g/m*3 17.2 C 3.2 km/h
1384 01-08-2021 19:35:00 17.2 C 13.33 g/m*3 17.2 C 4.8 km/h
1385 01-08-2021 19:40:00 17.1 C 13.25 g/m*3 17.1 C 6.4 km/h
1386 01-08-2021 19:45:00 17.1 C 13.25 g/m*3 17.1 C 9.7 km/h
1387 01-08-2021 19:50:00 16.9 C 13.09 g/m*3 16.9 C 6.4 km/h
1388 01-08-2021 19:55:00 16.8 C 13.15 g/m*3 16.8 C 6.4 km/h
1389 01-08-2021 20:00:00 16.7 C 13.07 g/m*3 16.7 C 6.4 km/h
1390 01-08-2021 20:05:00 16.6 C 13 g/m*3 16.6 C 8.1 km/h
1391 01-08-2021 20:10:00 16.5 C 12.92 g/m*3 16.5 C 6.4 km/h
1392 01-08-2021 20:15:00 16.4 C 12.84 g/m*3 16.4 C 6.4 km/h
1393 01-08-2021 20:20:00 16.3 C 12.76 g/m*3 16.3 C 4.8 km/h
1394 01-08-2021 20:25:00 16.2 C 12.69 g/m*3 16.2 C 6.4 km/h
1395 01-08-2021 20:30:00 16.2 C 12.82 g/m*3 16.2 C 8.1 km/h
1396 01-08-2021 20:35:00 16.1 C 12.61 g/m*3 16.1 C 6.4 km/h
1397 01-08-2021 20:40:00 15.9 C 12.59 g/m*3 15.9 C 9.7 km/h
1398 01-08-2021 20:45:00 15.9 C 12.59 g/m*3 15.9 C 4.8 km/h
1399 01-08-2021 20:50:00 15.8 C 12.52 g/m*3 15.8 C 8.1 km/h
1400 01-08-2021 20:55:00 15.8 C 12.52 g/m*3 15.8 C 8.1 km/h
Sensor: Nr:Datum:Temp:Abs-Feuchte:Windchill:Wind:
Aussen-T/F 1401 01-08-2021 21:00:00 15.7 C 12.44 g/m*3 15.7 C 8.1 km/h
1402 01-08-2021 21:05:00 15.6 C 12.37 g/m*3 15.6 C 8.1 km/h
1403 01-08-2021 21:10:00 15.5 C 12.29 g/m*3 15.5 C 8.1 km/h
1404 01-08-2021 21:15:00 15.4 C 12.22 g/m*3 15.4 C 6.4 km/h
1405 01-08-2021 21:20:00 15.3 C 12.14 g/m*3 15.3 C 8.1 km/h
1406 01-08-2021 21:25:00 15.2 C 12.07 g/m*3 15.2 C 6.4 km/h
1407 01-08-2021 21:30:00 15.1 C 12 g/m*3 15.1 C 3.2 km/h
1408 01-08-2021 21:35:00 15 C 11.93 g/m*3 15 C 6.4 km/h
1409 01-08-2021 21:40:00 15 C 12.05 g/m*3 15 C 3.2 km/h
1410 01-08-2021 21:45:00 15 C 12.05 g/m*3 15 C 3.2 km/h
1411 01-08-2021 21:50:00 14.9 C 11.98 g/m*3 14.9 C 3.2 km/h
1412 01-08-2021 21:55:00 14.9 C 11.98 g/m*3 14.9 C 1.6 km/h
1413 01-08-2021 22:00:00 14.9 C 11.98 g/m*3 14.9 C 3.2 km/h
1414 01-08-2021 22:05:00 14.8 C 11.91 g/m*3 14.8 C 3.2 km/h
1415 01-08-2021 22:10:00 14.7 C 11.83 g/m*3 14.7 C 4.8 km/h
1416 01-08-2021 22:15:00 14.7 C 11.83 g/m*3 14.7 C 3.2 km/h
1417 01-08-2021 22:20:00 14.7 C 11.83 g/m*3 14.7 C 3.2 km/h
1418 01-08-2021 22:25:00 14.6 C 11.76 g/m*3 14.6 C 3.2 km/h
1419 01-08-2021 22:30:00 14.7 C 11.96 g/m*3 14.7 C 3.2 km/h
1420 01-08-2021 22:35:00 14.7 C 11.96 g/m*3 14.7 C 3.2 km/h
1421 01-08-2021 22:40:00 14.6 C 11.89 g/m*3 14.6 C 3.2 km/h
1422 01-08-2021 22:45:00 14.6 C 11.89 g/m*3 14.6 C 3.2 km/h
1423 01-08-2021 22:50:00 14.6 C 11.89 g/m*3 14.6 C 3.2 km/h
1424 01-08-2021 22:55:00 14.5 C 11.82 g/m*3 14.5 C 1.6 km/h
1425 01-08-2021 23:00:00 14.4 C 11.74 g/m*3 14.4 C 1.6 km/h
Sensor: Nr:Datum:Temp:Abs-Feuchte:Windchill:Wind:
Aussen-T/F 1426 01-08-2021 23:05:00 14.3 C 11.67 g/m*3 14.3 C 3.2 km/h
1427 01-08-2021 23:10:00 14.3 C 11.67 g/m*3 14.3 C 4.8 km/h
1428 01-08-2021 23:15:00 14.3 C 11.67 g/m*3 14.3 C 3.2 km/h
1429 01-08-2021 23:20:00 14.2 C 11.6 g/m*3 14.2 C 4.8 km/h
1430 01-08-2021 23:25:00 14.2 C 11.6 g/m*3 14.2 C 3.2 km/h
1431 01-08-2021 23:30:00 14.2 C 11.6 g/m*3 14.2 C 3.2 km/h
1432 01-08-2021 23:35:00 14.1 C 11.53 g/m*3 14.1 C 0 km/h
1433 01-08-2021 23:40:00 14 C 11.46 g/m*3 14 C 3.2 km/h
1434 01-08-2021 23:45:00 13.9 C 11.39 g/m*3 13.9 C 1.6 km/h
1435 01-08-2021 23:50:00 13.9 C 11.39 g/m*3 13.9 C 3.2 km/h
1436 01-08-2021 23:55:00 13.8 C 11.32 g/m*3 13.8 C 1.6 km/h

Legende:
   Min
   Max


Maximal/Minimal-Werte vom 28.07.2021 - 01.08.2021

Sensor Min Max Avg
Temp
(Aussen-T/F)
11.4 °C
30-07-2021  06:25:00
28.1 °C
30-07-2021  17:50:00
18.1 °C
Abs-Feuchte
(Aussen-T/F)
9.75 g/m*3
30-07-2021  06:25:00
15.15 g/m*3
28-07-2021  15:50:00
11.93 g/m*3
Windchill
(Aussen-T/F)
11.4 C
30-07-2021  06:25:00
28.1 C
30-07-2021  17:50:00
18.08 C

Die Daten stammen von einer Davis Vantage Pro 2 Wetter-Station und werden unter Linux mit der Software wview2wettercgi und aufbereitet. Alle Angaben erfolgen ohne Gewähr für ihre Vollständigkeit oder Richtigkeit.
Kontakt: Rainer Krienke krienke@uni-koblenz.de . Meine Webseiten an der Uni Koblenz oder privat.
Version: $Revision: 0.78 $